W4HSV Weather Reports


time (UTC)temp
F
wind
direction
speed
knots
gust
knots
rain 1hr
in
rain 24hr
in
rain mn
in
humidity
%
barometer
mb
20260905025229 81 11 0.0 1.7 0.00 0.00 0.00 80 1014.3
20260905025157 81 11 0.0 1.7 0.00 0.00 0.00 79 1014.2
20260905025022 81 11 0.0 1.7 0.00 0.00 0.00 79 1014.3
20260905024929 81 11 0.0 1.7 0.00 0.00 0.00 79 1014.2
20260905024840 81 11 0.0 1.7 0.00 0.00 0.00 79 1014.3
20260905024810 81 11 0.9 1.7 0.00 0.00 0.00 79 1014.3
20260905024522 81 11 0.9 2.6 0.00 0.00 0.00 79 1014.3
20260905024450 81 11 0.9 2.6 0.00 0.00 0.00 79 1014.3
20260905024336 81 11 0.9 2.6 0.00 0.00 0.00 79 1014.4
20260905024228 81 11 0.9 2.6 0.00 0.00 0.00 79 1014.3
20260905024134 81 11 0.9 2.6 0.00 0.00 0.00 79 1014.3
20260905024042 81 11 0.9 2.6 0.00 0.00 0.00 79 1014.3
20260905023949 81 11 1.7 2.6 0.00 0.00 0.00 79 1014.4
20260905023854 81 11 1.7 2.6 0.00 0.00 0.00 79 1014.4
20260905023740 81 11 1.7 2.6 0.00 0.00 0.00 79 1014.3
20260905023627 81 11 1.7 2.6 0.00 0.00 0.00 78 1014.4
20260905023517 81 11 0.9 2.6 0.00 0.00 0.00 77 1014.3
20260905023425 81 11 0.9 2.6 0.00 0.00 0.00 78 1014.4
20260905023332 81 11 0.9 2.6 0.00 0.00 0.00 78 1014.4
20260905023302 81 11 0.9 2.6 0.00 0.00 0.00 78 1014.4
20260905023055 81 11 1.7 2.6 0.00 0.00 0.00 77 1014.3
20260905022924 81 34 1.7 2.6 0.00 0.00 0.00 76 1014.4
20260905022831 81 5 0.9 2.6 0.00 0.00 0.00 77 1014.4
20260905022718 81 5 0.0 1.7 0.00 0.00 0.00 77 1014.5
20260905022625 81 5 0.0 1.7 0.00 0.00 0.00 77 1014.3
20260905022533 81 5 0.0 1.7 0.00 0.00 0.00 78 1014.4
20260905022420 81 5 0.9 1.7 0.00 0.00 0.00 78 1014.4
20260905022331 81 5 0.9 1.7 0.00 0.00 0.00 78 1014.3
20260905022237 81 5 0.9 1.7 0.00 0.00 0.00 78 1014.3
20260905022143 81 5 0.9 1.7 0.00 0.00 0.00 78 1014.4
20260905022028 81 5 0.9 1.7 0.00 0.00 0.00 78 1014.4
20260905021935 81 5 0.9 1.7 0.00 0.00 0.00 78 1014.3
20260905021824 81 5 0.0 1.7 0.00 0.00 0.00 78 1014.4
20260905021800 81 5 0.0 1.7 0.00 0.00 0.00 77 1014.4
20260905021532 81 5 0.9 1.7 0.00 0.00 0.00 77 1014.4
20260905021418 81 5 0.9 1.7 0.00 0.00 0.00 77 1014.3
20260905021325 81 5 0.9 1.7 0.00 0.00 0.00 77 1014.3
20260905021254 81 5 0.9 1.7 0.00 0.00 0.00 78 1014.3
20260905021123 81 46 0.9 1.7 0.00 0.00 0.00 78 1014.4
20260905021031 81 46 0.9 1.7 0.00 0.00 0.00 78 1014.3
20260905020918 81 46 0.0 1.7 0.00 0.00 0.00 77 1014.3
20260905020845 81 46 0.0 1.7 0.00 0.00 0.00 77 1014.2
20260905020731 81 46 0.0 1.7 0.00 0.00 0.00 77 1014.3
20260905020620 81 46 0.0 1.7 0.00 0.00 0.00 77 1014.3
20260905020528 81 46 0.9 1.7 0.00 0.00 0.00 78 1014.3
20260905020435 81 46 0.9 1.7 0.00 0.00 0.00 78 1014.3
20260905020322 82 46 0.9 1.7 0.00 0.00 0.00 77 1014.3
20260905020254 82 46 0.9 1.7 0.00 0.00 0.00 77 1014.3
20260905020031 82 30 0.0 1.7 0.00 0.00 0.00 77 1014.3
20260905015918 82 5 0.0 0.9 0.00 0.00 0.00 77 1014.3
20260905015827 82 5 0.0 0.9 0.00 0.00 0.00 76 1014.3
20260905015735 82 5 0.0 0.9 0.00 0.00 0.00 76 1014.3
20260905015640 82 5 0.0 0.9 0.00 0.00 0.00 76 1014.3
20260905015528 82 5 0.0 1.7 0.00 0.00 0.00 76 1014.4
20260905015419 82 5 0.0 1.7 0.00 0.00 0.00 75 1014.3
20260905015327 82 5 0.0 1.7 0.00 0.00 0.00 75 1014.2
20260905015234 82 5 0.0 1.7 0.00 0.00 0.00 75 1014.3
20260905015121 82 5 0.0 2.6 0.00 0.00 0.00 75 1014.4
20260905015048 82 5 0.0 2.6 0.00 0.00 0.00 75 1014.4
20260905014933 82 5 0.0 2.6 0.00 0.00 0.00 75 1014.3
20260905014824 82 5 0.9 2.6 0.00 0.00 0.00 75 1014.3
20260905014756 82 5 0.9 2.6 0.00 0.00 0.00 75 1014.3
20260905014530 82 5 0.9 2.6 0.00 0.00 0.00 76 1014.3
20260905014437 82 5 0.9 2.6 0.00 0.00 0.00 76 1014.4
20260905014328 82 5 1.7 2.6 0.00 0.00 0.00 77 1014.3
20260905014236 82 5 1.7 2.6 0.00 0.00 0.00 78 1014.3
20260905014142 82 5 0.9 1.7 0.00 0.00 0.00 77 1014.3
20260905014030 82 348 0.9 1.7 0.00 0.00 0.00 77 1014.3
20260905013936 82 348 0.9 1.7 0.00 0.00 0.00 77 1014.3
20260905013844 82 348 0.9 1.7 0.00 0.00 0.00 77 1014.3
20260905013734 82 348 0.0 0.9 0.00 0.00 0.00 77 1014.3
20260905013620 82 348 0.0 0.0 0.00 0.00 0.00 76 1014.4
20260905013529 82 348 0.0 0.0 0.00 0.00 0.00 76 1014.3
20260905013456 82 348 0.0 0.0 0.00 0.00 0.00 75 1014.3
20260905013341 82 348 0.0 0.0 0.00 0.00 0.00 75 1014.3
20260905013255 82 348 0.0 0.0 0.00 0.00 0.00 75 1014.3
20260905013028 82 348 0.0 0.0 0.00 0.00 0.00 76 1014.2
20260905012935 82 348 0.0 0.0 0.00 0.00 0.00 76 1014.3
20260905012821 82 348 0.0 0.0 0.00 0.00 0.00 76 1014.2
20260905012729 82 348 0.0 0.0 0.00 0.00 0.00 76 1014.2
20260905012637 82 348 0.0 0.0 0.00 0.00 0.00 76 1014.2
20260905012527 82 348 0.0 0.9 0.00 0.00 0.00 76 1014.2
20260905012434 82 348 0.0 0.9 0.00 0.00 0.00 76 1014.2
20260905012320 82 348 0.0 1.7 0.00 0.00 0.00 75 1014.2
20260905012247 82 348 0.0 1.7 0.00 0.00 0.00 76 1014.3
20260905012133 82 348 0.0 1.7 0.00 0.00 0.00 76 1014.2
20260905012040 82 348 0.0 1.7 0.00 0.00 0.00 75 1014.3
20260905011932 82 348 0.0 1.7 0.00 0.00 0.00 75 1014.3
20260905011859 82 348 0.0 1.7 0.00 0.00 0.00 76 1014.3
20260905011809 82 348 0.0 1.7 0.00 0.00 0.00 76 1014.3
20260905011522 82 348 0.9 1.7 0.00 0.00 0.00 75 1014.1
20260905011428 82 348 0.0 1.7 0.00 0.00 0.00 75 1014.2
20260905011318 82 348 0.0 0.9 0.00 0.00 0.00 75 1014.3
20260905011246 82 348 0.0 0.0 0.00 0.00 0.00 75 1014.3
20260905011132 82 348 0.0 0.0 0.00 0.00 0.00 75 1014.2
20260905011020 82 348 0.0 0.0 0.00 0.00 0.00 75 1014.2
20260905010928 82 348 0.0 0.0 0.00 0.00 0.00 74 1014.3
20260905010835 82 348 0.0 0.9 0.00 0.00 0.00 74 1014.1
20260905010727 83 348 0.0 2.6 0.00 0.00 0.00 74 1014.2
20260905010633 83 348 0.0 2.6 0.00 0.00 0.00 73 1014.1
20260905010521 83 348 0.0 2.6 0.00 0.00 0.00 73 1014.1
20260905010448 83 348 0.0 2.6 0.00 0.00 0.00 74 1014.1
20260905010355 83 348 0.0 2.6 0.00 0.00 0.00 74 1014.1
20260905010329 83 348 0.0 2.6 0.00 0.00 0.00 73 1014.1
20260905010021 83 348 1.7 2.6 0.00 0.00 0.00 74 1014.1
20260905005928 83 348 1.7 2.6 0.00 0.00 0.00 74 1014.1
20260905005834 83 333 1.7 2.6 0.00 0.00 0.00 73 1014.1
20260905005720 83 351 1.7 2.6 0.00 0.00 0.00 74 1014.1
20260905005627 83 351 1.7 2.6 0.00 0.00 0.00 74 1014.1
20260905005537 83 347 0.9 2.6 0.00 0.00 0.00 74 1014.1
20260905005424 83 347 0.9 2.6 0.00 0.00 0.00 74 1014.1
20260905005331 83 347 1.7 3.5 0.00 0.00 0.00 74 1014.1
20260905005239 83 337 1.7 3.5 0.00 0.00 0.00 74 1014.2
20260905005124 83 344 1.7 3.5 0.00 0.00 0.00 74 1014.1
20260905005032 83 322 1.7 3.5 0.00 0.00 0.00 75 1014.1
20260905004923 83 345 1.7 3.5 0.00 0.00 0.00 74 1014.2
20260905004831 83 342 1.7 3.5 0.00 0.00 0.00 75 1014.1
20260905004802 83 342 2.6 3.5 0.00 0.00 0.00 74 1014.1
20260905004531 83 334 2.6 3.5 0.00 0.00 0.00 74 1014.1
20260905004422 83 331 2.6 3.5 0.00 0.00 0.00 74 1014.1
20260905004329 83 342 2.6 4.3 0.00 0.00 0.00 74 1014.2
20260905004237 83 344 2.6 4.3 0.00 0.00 0.00 74 1014.1
20260905004124 83 329 2.6 4.3 0.00 0.00 0.00 74 1014.1
20260905004030 83 348 2.6 4.3 0.00 0.00 0.00 74 1014.1
20260905003922 83 346 2.6 4.3 0.00 0.00 0.00 74 1014.1
20260905003828 83 346 2.6 4.3 0.00 0.00 0.00 74 1014.1
20260905003733 83 323 3.5 4.3 0.00 0.00 0.00 74 1014.1
20260905003622 83 333 3.5 4.3 0.00 0.00 0.00 74 1014.0
20260905003529 83 343 3.5 4.3 0.00 0.00 0.00 74 1014.1
20260905003435 83 341 2.6 3.5 0.00 0.00 0.00 73 1014.1
20260905003326 83 337 2.6 3.5 0.00 0.00 0.00 74 1014.1
20260905003256 83 360 2.6 3.5 0.00 0.00 0.00 73 1014.1
20260905003030 83 5 2.6 3.5 0.00 0.00 0.00 73 1014.2
20260905002937 83 334 2.6 3.5 0.00 0.00 0.00 73 1014.1
20260905002828 84 323 1.7 3.5 0.00 0.00 0.00 73 1014.1
20260905002734 84 342 1.7 3.5 0.00 0.00 0.00 73 1014.0
20260905002621 84 339 1.7 3.5 0.00 0.00 0.00 72 1014.0
20260905002528 84 314 2.6 3.5 0.00 0.00 0.00 73 1014.1
20260905002435 84 344 2.6 3.5 0.00 0.00 0.00 73 1014.1
20260905002320 84 360 2.6 3.5 0.00 0.00 0.00 73 1014.1
20260905002232 84 329 2.6 3.5 0.00 0.00 0.00 73 1014.1
20260905002118 84 346 2.6 3.5 0.00 0.00 0.00 73 1014.0
20260905002025 84 340 2.6 3.5 0.00 0.00 0.00 73 1014.1
20260905001931 84 333 1.7 3.5 0.00 0.00 0.00 72 1014.0
20260905001859 84 334 1.7 2.6 0.00 0.00 0.00 72 1014.0
20260905001832 84 327 1.7 3.5 0.00 0.00 0.00 72 1014.0
20260905001544 84 328 1.7 3.5 0.00 0.00 0.00 72 1014.0
20260905001450 84 317 1.7 3.5 0.00 0.00 0.00 71 1014.1
20260905001336 84 347 1.7 3.5 0.00 0.00 0.00 72 1014.1
20260905001223 84 339 1.7 3.5 0.00 0.00 0.00 72 1014.1
20260905001128 84 323 1.7 3.5 0.00 0.00 0.00 72 1014.0
20260905001019 84 345 1.7 3.5 0.00 0.00 0.00 71 1014.1
20260905000927 84 329 2.6 4.3 0.00 0.00 0.00 71 1014.1
20260905000834 84 340 2.6 4.3 0.00 0.00 0.00 71 1014.0
20260905000721 84 349 2.6 4.3 0.00 0.00 0.00 72 1014.0
20260905000648 84 355 2.6 4.3 0.00 0.00 0.00 71 1014.0
20260905000553 84 355 1.7 4.3 0.00 0.00 0.00 71 1014.0
20260905000424 85 13 1.7 4.3 0.00 0.00 0.00 71 1014.1
20260905000350 85 340 2.6 4.3 0.00 0.00 0.00 71 1014.1
20260905000300 85 335 2.6 4.3 0.00 0.00 0.00 71 1014.1
20260905000032 85 315 1.7 5.2 0.00 0.00 0.00 71 1014.0
20260904235920 85 345 1.7 5.2 0.00 0.00 0.00 71 1014.0
20260904235830 85 285 2.6 5.2 0.00 0.00 0.00 71 1014.0
20260904235717 85 306 2.6 5.2 0.00 0.00 0.00 71 1014.0
20260904235624 85 273 2.6 5.2 0.00 0.00 0.00 71 1014.0
20260904235552 85 297 2.6 5.2 0.00 0.00 0.00 71 1014.1
20260904235437 85 312 2.6 5.2 0.00 0.00 0.00 71 1014.1
20260904235322 85 303 3.5 7.0 0.00 0.00 0.00 71 1014.1
20260904235229 85 313 2.6 7.0 0.00 0.00 0.00 71 1014.0
20260904235121 85 323 0.9 7.0 0.00 0.00 0.00 71 1014.0
20260904235027 85 321 1.7 7.0 0.00 0.00 0.00 71 1014.1
20260904234934 85 297 1.7 7.0 0.00 0.00 0.00 71 1014.1
20260904234821 85 338 2.6 7.0 0.00 0.00 0.00 71 1014.1
20260904234756 85 338 3.5 7.0 0.00 0.00 0.00 71 1014.1
20260904234548 85 336 3.5 7.0 0.00 0.00 0.00 71 1014.1
20260904234434 85 330 3.5 7.0 0.00 0.00 0.00 71 1014.1
20260904234320 85 336 2.6 7.0 0.00 0.00 0.00 71 1014.1
20260904234226 85 327 2.6 7.0 0.00 0.00 0.00 71 1014.1
20260904234135 85 338 2.6 7.0 0.00 0.00 0.00 71 1014.1
20260904234026 85 300 2.6 7.0 0.00 0.00 0.00 71 1014.0
20260904233934 85 334 3.5 7.0 0.00 0.00 0.00 71 1014.1
20260904233821 85 321 3.5 7.8 0.00 0.00 0.00 70 1014.0
20260904233729 85 342 3.5 7.8 0.00 0.00 0.00 70 1014.1
20260904233635 85 338 3.5 7.8 0.00 0.00 0.00 70 1014.1
20260904233526 85 333 4.3 7.8 0.00 0.00 0.00 70 1014.0
20260904233434 85 330 4.3 7.8 0.00 0.00 0.00 70 1014.0
20260904233321 86 332 4.3 7.8 0.00 0.00 0.00 70 1014.0
20260904233251 86 325 4.3 7.8 0.00 0.00 0.00 70 1014.0
20260904233024 86 348 5.2 8.7 0.00 0.00 0.00 70 1014.0
20260904232935 86 340 5.2 8.7 0.00 0.00 0.00 70 1014.0
20260904232822 86 341 4.3 8.7 0.00 0.00 0.00 70 1014.0
20260904232728 86 328 4.3 8.7 0.00 0.00 0.00 69 1014.2
20260904232634 86 315 4.3 8.7 0.00 0.00 0.00 69 1014.0
20260904232521 86 331 4.3 8.7 0.00 0.00 0.00 69 1014.0
20260904232431 86 327 5.2 8.7 0.00 0.00 0.00 69 1014.1
20260904232357 86 346 5.2 8.7 0.00 0.00 0.00 69 1014.0
20260904232222 86 355 5.2 8.7 0.00 0.00 0.00 69 1014.0
20260904232129 86 334 4.3 8.7 0.00 0.00 0.00 69 1014.0
20260904232035 86 320 3.5 8.7 0.00 0.00 0.00 69 1014.0
20260904231923 86 346 4.3 9.6 0.00 0.00 0.00 68 1013.9
20260904231833 86 343 4.3 9.6 0.00 0.00 0.00 68 1013.9
20260904231803 86 344 5.2 9.6 0.00 0.00 0.00 68 1013.9
20260904231536 87 355 6.1 10.4 0.00 0.00 0.00 68 1013.9
20260904231421 87 5 6.1 10.4 0.00 0.00 0.00 67 1013.8
20260904231328 87 5 7.0 10.4 0.00 0.00 0.00 67 1013.9
20260904231219 87 330 6.1 10.4 0.00 0.00 0.00 67 1013.9
20260904231126 87 338 6.1 10.4 0.00 0.00 0.00 67 1014.0
20260904231033 87 5 5.2 10.4 0.00 0.00 0.00 67 1014.0
20260904230919 87 331 5.2 10.4 0.00 0.00 0.00 66 1014.0
20260904230827 87 316 7.0 10.4 0.00 0.00 0.00 66 1014.1
20260904230740 88 340 7.0 10.4 0.00 0.00 0.00 66 1014.1
20260904230626 88 331 5.2 9.6 0.00 0.00 0.00 66 1014.1
20260904230533 88 344 4.3 9.6 0.00 0.00 0.00 66 1014.1
20260904230419 88 331 5.2 10.4 0.00 0.00 0.00 66 1014.1
20260904230327 88 351 6.1 12.2 0.00 0.00 0.00 66 1014.0
20260904230300 88 355 6.1 12.2 0.00 0.00 0.00 65 1014.0
20260904230034 88 355 4.3 12.2 0.00 0.00 0.00 65 1014.1
20260904225922 89 322 5.2 12.2 0.00 0.00 0.00 65 1014.1
20260904225828 89 312 7.0 12.2 0.00 0.00 0.00 65 1014.0
20260904225736 89 328 7.0 12.2 0.00 0.00 0.00 64 1014.0
20260904225628 89 338 8.7 12.2 0.00 0.00 0.00 64 1013.9
20260904225555 89 318 8.7 12.2 0.00 0.00 0.00 64 1013.9
20260904225421 90 324 7.0 8.7 0.00 0.00 0.00 64 1013.8
20260904225328 90 331 6.1 8.7 0.00 0.00 0.00 64 1013.8
20260904225234 90 331 6.1 7.8 0.00 0.00 0.00 64 1013.7
20260904225123 90 344 6.1 8.7 0.00 0.00 0.00 64 1013.8
20260904225033 90 318 5.2 10.4 0.00 0.00 0.00 64 1013.8
20260904224920 90 5 3.5 12.2 0.00 0.00 0.00 64 1013.7
20260904224827 90 10 2.6 12.2 0.00 0.00 0.00 64 1013.7
20260904224758 91 355 2.6 12.2 0.00 0.00 0.00 63 1013.7
20260904224532 91 313 4.3 12.2 0.00 0.00 0.00 63 1013.6
20260904224423 91 346 5.2 12.2 0.00 0.00 0.00 62 1013.6
20260904224350 91 317 7.0 12.2 0.00 0.00 0.00 62 1013.6
20260904224236 92 328 8.7 12.2 0.00 0.00 0.00 62 1013.5
20260904224122 92 319 7.8 12.2 0.00 0.00 0.00 62 1013.6
20260904224028 92 350 6.1 11.3 0.00 0.00 0.00 62 1013.6
20260904223920 92 349 5.2 11.3 0.00 0.00 0.00 62 1013.7
20260904223827 93 338 6.1 11.3 0.00 0.00 0.00 62 1013.6
20260904223734 93 355 7.8 11.3 0.00 0.00 0.00 62 1013.7
20260904223621 93 344 7.0 11.3 0.00 0.00 0.00 62 1013.7
20260904223528 93 355 6.1 11.3 0.00 0.00 0.00 61 1013.7
20260904223434 93 355 4.3 13.0 0.00 0.00 0.00 61 1013.7
20260904223325 93 311 5.2 13.9 0.00 0.00 0.00 60 1013.7
20260904223256 93 350 5.2 13.9 0.00 0.00 0.00 60 1013.7
20260904223031 94 321 6.1 13.9 0.00 0.00 0.00 60 1013.7
20260904222919 94 343 7.0 13.9 0.00 0.00 0.00 59 1013.6
20260904222830 94 332 7.8 13.9 0.00 0.00 0.00 59 1013.7
20260904222736 94 328 8.7 13.9 0.00 0.00 0.00 58 1013.7
20260904222624 95 333 9.6 13.9 0.00 0.00 0.00 58 1013.7
20260904222530 95 329 9.6 13.9 0.00 0.00 0.00 59 1013.6
20260904222437 95 321 10.4 13.9 0.00 0.00 0.00 58 1013.6
20260904222343 95 301 6.1 13.0 0.00 0.00 0.00 59 1013.6
20260904222228 95 306 6.1 8.7 0.00 0.00 0.00 58 1013.7
20260904222119 95 329 6.1 8.7 0.00 0.00 0.00 59 1013.7
20260904222024 95 328 5.2 8.7 0.00 0.00 0.00 59 1013.6
20260904221952 95 323 4.3 8.7 0.00 0.00 0.00 59 1013.5
20260904221836 95 321 3.5 7.0 0.00 0.00 0.00 59 1013.6
20260904221807 95 327 3.5 7.0 0.00 0.00 0.00 58 1013.6
20260904221522 95 319 3.5 7.0 0.00 0.00 0.00 57 1013.5
20260904221430 95 247 3.5 7.0 0.00 0.00 0.00 58 1013.5
20260904221337 95 298 3.5 7.0 0.00 0.00 0.00 57 1013.5
20260904221226 95 307 3.5 7.8 0.00 0.00 0.00 58 1013.6
20260904221152 95 317 3.5 7.8 0.00 0.00 0.00 57 1013.6
20260904221019 95 302 3.5 7.8 0.00 0.00 0.00 58 1013.5
20260904220930 95 277 3.5 7.8 0.00 0.00 0.00 58 1013.7
20260904220857 95 288 3.5 8.7 0.00 0.00 0.00 58 1013.7
20260904220721 95 276 3.5 8.7 0.00 0.00 0.00 59 1013.7
20260904220629 95 258 4.3 8.7 0.00 0.00 0.00 59 1013.6
20260904220536 95 290 4.3 8.7 0.00 0.00 0.00 59 1013.5
20260904220422 94 272 4.3 8.7 0.00 0.00 0.00 60 1013.5
20260904220334 94 304 5.2 8.7 0.00 0.00 0.00 61 1013.5
20260904220303 94 297 5.2 8.7 0.00 0.00 0.00 61 1013.5
20260904220036 94 279 5.2 8.7 0.00 0.00 0.00 61 1013.4
20260904215922 94 298 3.5 7.8 0.00 0.00 0.00 61 1013.5
20260904215832 94 217 3.5 7.8 0.00 0.00 0.00 61 1013.5
20260904215719 94 287 4.3 7.8 0.00 0.00 0.00 61 1013.4
20260904215626 94 298 5.2 7.8 0.00 0.00 0.00 61 1013.4
20260904215553 94 250 4.3 7.8 0.00 0.00 0.00 61 1013.5
20260904215420 94 284 3.5 7.8 0.00 0.00 0.00 61 1013.4
20260904215326 94 96 3.5 7.0 0.00 0.00 0.00 60 1013.5
20260904215254 94 263 4.3 7.8 0.00 0.00 0.00 61 1013.4
20260904215124 94 229 2.6 7.8 0.00 0.00 0.00 61 1013.5
20260904215051 93 283 1.7 7.8 0.00 0.00 0.00 62 1013.5
20260904214958 93 248 1.7 7.8 0.00 0.00 0.00 61 1013.5
20260904214843 93 227 2.6 7.8 0.00 0.00 0.00 61 1013.5
20260904214814 93 251 3.5 7.8 0.00 0.00 0.00 61 1013.5
20260904214529 93 240 5.2 7.8 0.00 0.00 0.00 62 1013.3
20260904214436 93 260 3.5 7.0 0.00 0.00 0.00 62 1013.3
20260904214343 93 308 3.5 6.1 0.00 0.00 0.00 61 1013.3
20260904214228 93 238 3.5 6.1 0.00 0.00 0.00 61 1013.3
20260904214135 93 248 2.6 5.2 0.00 0.00 0.00 60 1013.4
20260904214023 93 275 2.6 4.3 0.00 0.00 0.00 61 1013.4
20260904213950 93 282 2.6 4.3 0.00 0.00 0.00 62 1013.5
20260904213818 93 265 2.6 7.0 0.00 0.00 0.00 62 1013.4
20260904213745 93 267 2.6 7.0 0.00 0.00 0.00 63 1013.5
20260904213652 93 261 2.6 7.0 0.00 0.00 0.00 63 1013.5
20260904213517 93 260 2.6 7.0 0.00 0.00 0.00 61 1013.5
20260904213424 92 254 2.6 7.0 0.00 0.00 0.00 63 1013.4
20260904213330 92 298 2.6 7.0 0.00 0.00 0.00 61 1013.4
20260904213303 93 250 3.5 7.0 0.00 0.00 0.00 61 1013.4
20260904213036 93 194 4.3 7.0 0.00 0.00 0.00 62 1013.3
20260904212922 93 167 3.5 6.1 0.00 0.00 0.00 62 1013.4
20260904212849 93 220 3.5 6.1 0.00 0.00 0.00 62 1013.3
20260904212734 93 197 3.5 6.1 0.00 0.00 0.00 61 1013.3
20260904212645 93 218 3.5 5.2 0.00 0.00 0.00 60 1013.3
20260904212532 93 186 2.6 6.1 0.00 0.00 0.00 60 1013.4
20260904212418 93 196 2.6 6.1 0.00 0.00 0.00 59 1013.4
20260904212346 93 226 1.7 6.1 0.00 0.00 0.00 58 1013.4
20260904212232 93 174 1.7 6.1 0.00 0.00 0.00 58 1013.4
20260904212118 93 154 1.7 6.1 0.00 0.00 0.00 57 1013.4
20260904212029 93 133 1.7 6.1 0.00 0.00 0.00 57 1013.4
20260904211917 93 121 1.7 6.1 0.00 0.00 0.00 58 1013.4
20260904211844 93 139 1.7 7.0 0.00 0.00 0.00 58 1013.5
20260904211753 93 126 1.7 7.0 0.00 0.00 0.00 58 1013.5
20260904211548 93 207 2.6 7.0 0.00 0.00 0.00 58 1013.3
20260904211419 93 182 2.6 7.0 0.00 0.00 0.00 59 1013.3
20260904211324 93 180 2.6 7.0 0.00 0.00 0.00 60 1013.2
20260904211231 93 155 3.5 7.0 0.00 0.00 0.00 58 1013.2
20260904211118 93 138 4.3 7.0 0.00 0.00 0.00 60 1013.3
20260904211024 93 184 4.3 7.0 0.00 0.00 0.00 61 1013.3
20260904210951 93 119 4.3 7.0 0.00 0.00 0.00 60 1013.3
20260904210820 93 126 4.3 7.0 0.00 0.00 0.00 60 1013.2
20260904210726 93 121 4.3 7.0 0.00 0.00 0.00 60 1013.2
20260904210634 93 119 4.3 7.0 0.00 0.00 0.00 60 1013.2
20260904210542 93 123 4.3 7.8 0.00 0.00 0.00 60 1013.1
20260904210429 93 109 3.5 7.8 0.00 0.00 0.00 59 1013.2
20260904210356 93 133 2.6 7.8 0.00 0.00 0.00 59 1013.2
20260904210329 93 136 2.6 7.8 0.00 0.00 0.00 60 1013.2
20260904210023 93 59 3.5 7.8 0.00 0.00 0.00 60 1013.2
20260904205928 93 185 3.5 8.7 0.00 0.00 0.00 59 1013.4
20260904205835 93 139 5.2 8.7 0.00 0.00 0.00 59 1013.4
20260904205721 93 153 5.2 8.7 0.00 0.00 0.00 59 1013.3
20260904205633 93 140 4.3 8.7 0.00 0.00 0.00 59 1013.2
20260904205539 93 115 3.5 8.7 0.00 0.00 0.00 59 1013.1
20260904205425 94 140 3.5 8.7 0.00 0.00 0.00 59 1013.1
20260904205331 94 137 4.3 9.6 0.00 0.00 0.00 59 1013.0
20260904205238 94 71 6.1 9.6 0.00 0.00 0.00 58 1013.0
20260904205124 94 135 7.0 9.6 0.00 0.00 0.00 58 1013.0
20260904205030 94 105 6.1 9.6 0.00 0.00 0.00 58 1013.0
20260904204920 94 131 5.2 10.4 0.00 0.00 0.00 59 1013.0
20260904204827 94 132 6.1 12.2 0.00 0.00 0.00 58 1013.0
20260904204756 95 139 6.1 12.2 0.00 0.00 0.00 57 1013.0
20260904204527 95 106 5.2 12.2 0.00 0.00 0.00 59 1013.1
20260904204419 95 101 5.2 12.2 0.00 0.00 0.00 57 1013.1
20260904204326 95 113 6.1 12.2 0.00 0.00 0.00 57 1013.1
20260904204233 95 121 6.1 12.2 0.00 0.00 0.00 60 1013.2
20260904204120 95 122 7.8 12.2 0.00 0.00 0.00 56 1013.3
20260904204028 96 111 7.8 12.2 0.00 0.00 0.00 56 1013.3
20260904203918 96 90 7.0 11.3 0.00 0.00 0.00 57 1013.3
20260904203824 96 94 6.1 12.2 0.00 0.00 0.00 57 1013.3
20260904203730 96 132 6.1 12.2 0.00 0.00 0.00 58 1013.3
20260904203636 96 163 7.0 12.2 0.00 0.00 0.00 57 1013.4
20260904203522 96 109 7.8 12.2 0.00 0.00 0.00 56 1013.3
20260904203451 96 113 7.0 12.2 0.00 0.00 0.00 56 1013.4
20260904203417 96 121 7.8 12.2 0.00 0.00 0.00 56 1013.4
20260904203327 97 121 7.8 12.2 0.00 0.00 0.00 56 1013.4
20260904203019 97 109 7.0 12.2 0.00 0.00 0.00 56 1013.4
20260904202926 97 157 7.8 11.3 0.00 0.00 0.00 55 1013.4
20260904202833 97 115 7.8 11.3 0.00 0.00 0.00 55 1013.4
20260904202719 97 94 6.1 9.6 0.00 0.00 0.00 54 1013.5
20260904202629 97 21 5.2 8.7 0.00 0.00 0.00 53 1013.4
20260904202517 98 49 4.3 8.7 0.00 0.00 0.00 54 1013.5
20260904202423 98 142 3.5 8.7 0.00 0.00 0.00 55 1013.5
20260904202350 97 67 3.5 8.7 0.00 0.00 0.00 53 1013.5
20260904202237 97 148 4.3 8.7 0.00 0.00 0.00 53 1013.6
20260904202143 97 102 3.5 8.7 0.00 0.00 0.00 52 1013.6
20260904202034 98 93 3.5 8.7 0.00 0.00 0.00 52 1013.5
20260904201919 98 59 5.2 8.7 0.00 0.00 0.00 52 1013.5
20260904201827 98 126 5.2 8.7 0.00 0.00 0.00 51 1013.6
20260904201758 98 126 4.3 8.7 0.00 0.00 0.00 51 1013.6
20260904201550 98 25 2.6 7.8 0.00 0.00 0.00 52 1013.6
20260904201419 98 85 2.6 7.8 0.00 0.00 0.00 52 1013.7
20260904201328 98 5 3.5 7.8 0.00 0.00 0.00 51 1013.7
20260904201234 98 63 4.3 7.8 0.00 0.00 0.00 52 1013.8
20260904201120 97 79 5.2 7.8 0.00 0.00 0.00 52 1013.7
20260904201029 97 69 4.3 7.8 0.00 0.00 0.00 53 1013.7
20260904200920 97 125 3.5 7.8 0.00 0.00 0.00 50 1013.8
20260904200827 97 136 3.5 7.8 0.00 0.00 0.00 51 1013.8
20260904200735 97 115 4.3 7.8 0.00 0.00 0.00 52 1013.7
20260904200621 97 83 5.2 7.8 0.00 0.00 0.00 52 1013.8
20260904200528 97 84 4.3 7.8 0.00 0.00 0.00 54 1013.7
20260904200435 97 111 2.6 6.1 0.00 0.00 0.00 52 1013.8
20260904200324 97 155 2.6 6.1 0.00 0.00 0.00 52 1013.8
20260904200255 97 146 1.7 6.1 0.00 0.00 0.00 54 1013.8
20260904200049 97 116 0.9 6.1 0.00 0.00 0.00 53 1013.9
20260904195933 97 61 1.7 6.1 0.00 0.00 0.00 53 1013.9
20260904195842 97 61 2.6 6.1 0.00 0.00 0.00 52 1013.9
20260904195731 97 85 3.5 6.1 0.00 0.00 0.00 51 1013.9
20260904195618 97 126 2.6 6.1 0.00 0.00 0.00 52 1013.9
20260904195546 97 125 3.5 6.1 0.00 0.00 0.00 51 1013.9
20260904195431 97 48 4.3 6.1 0.00 0.00 0.00 51 1014.0
20260904195319 97 57 4.3 8.7 0.00 0.00 0.00 51 1014.0
20260904195226 98 90 3.5 8.7 0.00 0.00 0.00 51 1014.0
20260904195132 98 23 3.5 8.7 0.00 0.00 0.00 52 1014.0
20260904195042 98 101 2.6 8.7 0.00 0.00 0.00 52 1014.1
20260904194927 98 157 3.5 8.7 0.00 0.00 0.00 53 1014.1
20260904194855 98 121 3.5 8.7 0.00 0.00 0.00 53 1014.1
20260904194826 98 84 5.2 8.7 0.00 0.00 0.00 52 1014.0
20260904194518 98 75 4.3 7.8 0.00 0.00 0.00 53 1014.2
20260904194450 98 51 3.5 7.8 0.00 0.00 0.00 52 1014.2
20260904194336 98 82 2.6 7.8 0.00 0.00 0.00 52 1014.1
20260904194222 98 63 3.5 7.8 0.00 0.00 0.00 52 1014.2
20260904194130 98 67 3.5 7.8 0.00 0.00 0.00 52 1014.2
20260904194018 98 113 2.6 7.8 0.00 0.00 0.00 54 1014.3
20260904193947 98 97 2.6 7.8 0.00 0.00 0.00 52 1014.3
20260904193836 98 53 2.6 7.8 0.00 0.00 0.00 53 1014.3
20260904193724 98 31 2.6 7.8 0.00 0.00 0.00 53 1014.2
20260904193631 98 42 4.3 7.8 0.00 0.00 0.00 54 1014.3
20260904193517 98 65 5.2 7.8 0.00 0.00 0.00 53 1014.3
20260904193425 98 138 4.3 7.8 0.00 0.00 0.00 56 1014.3
20260904193333 98 130 3.5 7.8 0.00 0.00 0.00 54 1014.2
20260904193305 98 121 3.5 7.0 0.00 0.00 0.00 51 1014.2
20260904193018 98 198 2.6 6.1 0.00 0.00 0.00 50 1014.2
20260904192926 98 177 3.5 6.1 0.00 0.00 0.00 51 1014.3
20260904192832 98 144 1.7 6.1 0.00 0.00 0.00 50 1014.3
20260904192742 98 251 1.7 6.1 0.00 0.00 0.00 50 1014.4
20260904192629 98 184 2.6 6.1 0.00 0.00 0.00 50 1014.4
20260904192536 98 158 3.5 6.1 0.00 0.00 0.00 51 1014.3
20260904192425 98 195 2.6 5.2 0.00 0.00 0.00 55 1014.3
20260904192332 98 154 1.7 4.3 0.00 0.00 0.00 54 1014.4
20260904192221 98 150 1.7 4.3 0.00 0.00 0.00 54 1014.4
20260904192131 98 194 1.7 4.3 0.00 0.00 0.00 52 1014.3
20260904192039 98 200 0.9 3.5 0.00 0.00 0.00 51 1014.4
20260904191923 98 78 0.9 7.0 0.00 0.00 0.00 51 1014.4
20260904191831 98 105 1.7 7.0 0.00 0.00 0.00 52 1014.3
20260904191800 98 105 1.7 7.0 0.00 0.00 0.00 52 1014.3
20260904191518 98 360 1.7 7.0 0.00 0.00 0.00 53 1014.5
20260904191426 98 360 1.7 7.0 0.00 0.00 0.00 53 1014.6
20260904191333 97 14 2.6 7.0 0.00 0.00 0.00 53 1014.5
20260904191221 97 327 3.5 7.0 0.00 0.00 0.00 53 1014.6
20260904191127 97 29 3.5 7.0 0.00 0.00 0.00 55 1014.6
20260904191054 97 36 3.5 7.0 0.00 0.00 0.00 55 1014.6
20260904190922 97 5 3.5 7.0 0.00 0.00 0.00 53 1014.6
20260904190829 97 39 4.3 7.8 0.00 0.00 0.00 54 1014.7
20260904190736 97 9 4.3 7.8 0.00 0.00 0.00 54 1014.7
20260904190623 97 36 4.3 7.8 0.00 0.00 0.00 53 1014.7
20260904190530 97 57 4.3 7.8 0.00 0.00 0.00 53 1014.8
20260904190421 97 90 4.3 7.8 0.00 0.00 0.00 53 1014.8
20260904190330 97 26 3.5 7.8 0.00 0.00 0.00 53 1014.8
20260904190300 97 67 3.5 7.8 0.00 0.00 0.00 53 1014.8
20260904190034 97 48 3.5 7.8 0.00 0.00 0.00 55 1014.8
20260904185927 97 97 3.5 6.1 0.00 0.00 0.00 54 1014.8
20260904185832 98 76 3.5 6.1 0.00 0.00 0.00 54 1014.8
20260904185646 98 157 3.5 6.1 0.00 0.00 0.00 52 1014.8
20260904185533 98 134 2.6 6.1 0.00 0.00 0.00 51 1014.9
20260904185418 99 150 1.7 6.1 0.00 0.00 0.00 51 1014.9
20260904185329 99 127 2.6 6.1 0.00 0.00 0.00 52 1014.9
20260904185235 99 75 2.6 6.1 0.00 0.00 0.00 52 1015.0
20260904185122 99 118 2.6 7.0 0.00 0.00 0.00 52 1015.0
20260904185049 99 355 2.6 7.0 0.00 0.00 0.00 53 1015.0
20260904184934 99 322 3.5 7.0 0.00 0.00 0.00 53 1015.0
20260904184822 99 301 2.6 7.0 0.00 0.00 0.00 54 1015.0
20260904184756 99 341 2.6 7.0 0.00 0.00 0.00 54 1015.0
20260904184528 99 19 3.5 7.0 0.00 0.00 0.00 53 1015.1
20260904184437 99 32 4.3 7.0 0.00 0.00 0.00 54 1015.1
20260904184322 99 21 4.3 7.0 0.00 0.00 0.00 54 1015.2
20260904184228 99 34 3.5 7.0 0.00 0.00 0.00 54 1015.2
20260904184120 99 11 3.5 7.0 0.00 0.00 0.00 54 1015.2
20260904184028 99 35 4.3 7.0 0.00 0.00 0.00 54 1015.2
20260904183934 99 22 4.3 7.0 0.00 0.00 0.00 55 1015.2
20260904183820 98 355 3.5 7.0 0.00 0.00 0.00 54 1015.2
20260904183727 98 92 4.3 7.0 0.00 0.00 0.00 56 1015.3
20260904183638 98 42 4.3 7.0 0.00 0.00 0.00 55 1015.2
20260904183524 98 35 2.6 7.0 0.00 0.00 0.00 55 1015.3
20260904183430 98 163 2.6 7.0 0.00 0.00 0.00 57 1015.2
20260904183338 98 78 3.5 7.0 0.00 0.00 0.00 57 1015.3
20260904183309 98 12 4.3 7.0 0.00 0.00 0.00 57 1015.3
20260904183045 98 15 5.2 13.9 0.00 0.00 0.00 56 1015.2
20260904182951 98 16 5.2 13.9 0.00 0.00 0.00 57 1015.2
20260904182857 98 349 4.3 13.9 0.00 0.00 0.00 57 1015.3
20260904182723 98 325 2.6 13.9 0.00 0.00 0.00 56 1015.3
20260904182631 98 5 2.6 13.9 0.00 0.00 0.00 55 1015.4
20260904182518 98 9 2.6 13.9 0.00 0.00 0.00 56 1015.4
20260904182426 98 36 3.5 13.9 0.00 0.00 0.00 55 1015.3
20260904182337 98 331 6.1 13.9 0.00 0.00 0.00 56 1015.4
20260904182224 98 22 7.8 13.9 0.00 0.00 0.00 55 1015.3
20260904182132 98 148 6.1 11.3 0.00 0.00 0.00 55 1015.3
20260904182018 98 98 2.6 7.0 0.00 0.00 0.00 55 1015.4
20260904181925 97 121 0.9 6.1 0.00 0.00 0.00 55 1015.4
20260904181835 97 281 0.9 6.1 0.00 0.00 0.00 56 1015.4
20260904181807 97 276 0.9 7.0 0.00 0.00 0.00 53 1015.4
20260904181519 97 90 1.7 7.0 0.00 0.00 0.00 54 1015.4
20260904181446 97 90 3.5 7.0 0.00 0.00 0.00 54 1015.4
20260904181332 98 132 3.5 7.0 0.00 0.00 0.00 56 1015.4
20260904181223 98 123 1.7 7.8 0.00 0.00 0.00 56 1015.5
20260904181130 98 112 1.7 7.8 0.00 0.00 0.00 56 1015.5
20260904181036 98 100 2.6 7.8 0.00 0.00 0.00 55 1015.5
20260904180922 98 113 2.6 7.8 0.00 0.00 0.00 54 1015.5
20260904180829 98 65 2.6 7.8 0.00 0.00 0.00 55 1015.5
20260904180720 98 40 2.6 7.8 0.00 0.00 0.00 54 1015.5
20260904180626 98 64 3.5 7.8 0.00 0.00 0.00 54 1015.6
20260904180532 98 88 5.2 7.8 0.00 0.00 0.00 55 1015.6
20260904180420 98 75 3.5 7.8 0.00 0.00 0.00 54 1015.6
20260904180327 98 168 3.5 7.0 0.00 0.00 0.00 56 1015.6
20260904180302 98 118 3.5 7.0 0.00 0.00 0.00 56 1015.6
20260904180035 98 13 4.3 6.1 0.00 0.00 0.00 56 1015.7
20260904175922 97 45 3.5 7.0 0.00 0.00 0.00 57 1015.8
20260904175828 97 46 1.7 5.2 0.00 0.00 0.00 58 1015.8
20260904175736 97 351 0.9 5.2 0.00 0.00 0.00 57 1015.7
20260904175625 97 29 0.9 5.2 0.00 0.00 0.00 57 1015.9
20260904175531 97 28 1.7 5.2 0.00 0.00 0.00 58 1015.7
20260904175418 97 50 3.5 8.7 0.00 0.00 0.00 58 1015.8
20260904175327 97 42 2.6 8.7 0.00 0.00 0.00 57 1015.9
20260904175233 97 46 1.7 8.7 0.00 0.00 0.00 57 1015.9
20260904175120 97 355 3.5 8.7 0.00 0.00 0.00 59 1015.9
20260904175030 97 360 3.5 8.7 0.00 0.00 0.00 62 1015.8
20260904174917 97 346 3.5 8.7 0.00 0.00 0.00 58 1015.9
20260904174824 97 355 5.2 8.7 0.00 0.00 0.00 57 1015.9
20260904174755 97 40 5.2 8.7 0.00 0.00 0.00 59 1015.9
20260904174534 97 49 3.5 7.0 0.00 0.00 0.00 57 1015.9
20260904174421 97 333 1.7 5.2 0.00 0.00 0.00 55 1015.9
20260904174328 97 281 1.7 5.2 0.00 0.00 0.00 55 1015.9
20260904174235 97 225 2.6 5.2 0.00 0.00 0.00 56 1016.0
20260904174122 97 182 2.6 5.2 0.00 0.00 0.00 56 1015.9
20260904174030 97 230 1.7 4.3 0.00 0.00 0.00 57 1016.0
20260904173922 96 213 0.9 4.3 0.00 0.00 0.00 57 1016.0
20260904173828 96 190 0.9 4.3 0.00 0.00 0.00 59 1016.0
20260904173736 96 277 0.9 6.1 0.00 0.00 0.00 60 1016.0
20260904173623 96 321 0.9 6.1 0.00 0.00 0.00 57 1016.0
20260904173531 96 360 0.9 6.1 0.00 0.00 0.00 57 1016.0
20260904173421 96 271 0.9 6.1 0.00 0.00 0.00 59 1016.1
20260904173327 96 341 1.7 6.1 0.00 0.00 0.00 57 1016.0
20260904173256 96 67 1.7 6.1 0.00 0.00 0.00 57 1016.0
20260904173050 96 74 1.7 6.1 0.00 0.00 0.00 56 1016.1
20260904172957 96 91 2.6 6.1 0.00 0.00 0.00 57 1016.1
20260904172826 96 52 2.6 5.2 0.00 0.00 0.00 59 1016.1
20260904172733 96 59 1.7 5.2 0.00 0.00 0.00 59 1016.1
20260904172639 96 59 2.6 5.2 0.00 0.00 0.00 58 1016.1
20260904172525 96 102 2.6 5.2 0.00 0.00 0.00 59 1016.0
20260904172431 96 121 2.6 5.2 0.00 0.00 0.00 59 1016.0
20260904172317 96 25 2.6 4.3 0.00 0.00 0.00 61 1016.1
20260904172229 95 24 3.5 4.3 0.00 0.00 0.00 61 1016.1
20260904172136 95 351 2.6 4.3 0.00 0.00 0.00 60 1016.1
20260904172025 95 308 1.7 5.2 0.00 0.00 0.00 60 1016.1
20260904171932 95 339 0.9 5.2 0.00 0.00 0.00 58 1016.1
20260904171838 95 107 1.7 5.2 0.00 0.00 0.00 61 1016.1
20260904171812 95 50 1.7 5.2 0.00 0.00 0.00 61 1016.1
20260904171524 95 126 1.7 6.1 0.00 0.00 0.00 60 1016.1
20260904171429 95 121 1.7 6.1 0.00 0.00 0.00 62 1016.1
20260904171357 95 101 2.6 6.1 0.00 0.00 0.00 63 1016.1
20260904171222 95 34 2.6 6.1 0.00 0.00 0.00 60 1016.2
20260904171131 95 355 0.9 6.1 0.00 0.00 0.00 61 1016.2
20260904171022 95 186 0.9 6.1 0.00 0.00 0.00 59 1016.2
20260904170928 95 186 1.7 6.1 0.00 0.00 0.00 58 1016.2
20260904170835 95 240 3.5 6.1 0.00 0.00 0.00 57 1016.2
20260904170722 95 188 4.3 6.1 0.00 0.00 0.00 58 1016.2
20260904170628 95 161 4.3 7.0 0.00 0.00 0.00 59 1016.3
20260904170519 95 155 3.5 7.0 0.00 0.00 0.00 60 1016.3
20260904170426 95 87 3.5 7.0 0.00 0.00 0.00 58 1016.3
20260904170354 95 129 2.6 7.0 0.00 0.00 0.00 59 1016.3
20260904170325 95 127 3.5 7.0 0.00 0.00 0.00 58 1016.4
20260904170037 95 157 1.7 7.0 0.00 0.00 0.00 58 1016.3
20260904165928 95 16 1.7 7.0 0.00 0.00 0.00 59 1016.4
20260904165854 95 51 2.6 7.0 0.00 0.00 0.00 60 1016.4
20260904165721 95 26 1.7 6.1 0.00 0.00 0.00 60 1016.4
20260904165628 95 355 1.7 6.1 0.00 0.00 0.00 58 1016.3
20260904165517 95 196 1.7 6.1 0.00 0.00 0.00 60 1016.4
20260904165423 96 147 2.6 6.1 0.00 0.00 0.00 59 1016.4
20260904165350 96 84 2.6 6.1 0.00 0.00 0.00 58 1016.5
20260904165220 95 103 3.5 6.1 0.00 0.00 0.00 59 1016.5
20260904165127 95 64 4.3 6.1 0.00 0.00 0.00 60 1016.5
20260904165054 95 59 4.3 6.1 0.00 0.00 0.00 60 1016.6
20260904164941 95 49 3.5 7.0 0.00 0.00 0.00 60 1016.5
20260904164846 95 15 1.7 5.2 0.00 0.00 0.00 58 1016.5
20260904164800 95 28 2.6 5.2 0.00 0.00 0.00 58 1016.5
20260904164534 95 46 2.6 5.2 0.00 0.00 0.00 60 1016.5
20260904164420 95 31 3.5 5.2 0.00 0.00 0.00 59 1016.5
20260904164328 95 35 3.5 6.1 0.00 0.00 0.00 61 1016.6
20260904164234 95 80 2.6 5.2 0.00 0.00 0.00 60 1016.6
20260904164120 95 50 2.6 5.2 0.00 0.00 0.00 65 1016.6
20260904164050 95 86 2.6 5.2 0.00 0.00 0.00 63 1016.6
20260904163936 95 83 2.6 5.2 0.00 0.00 0.00 60 1016.6
20260904163822 95 53 1.7 5.2 0.00 0.00 0.00 61 1016.6
20260904163747 94 22 0.9 3.5 0.00 0.00 0.00 60 1016.6
20260904163634 94 24 0.9 3.5 0.00 0.00 0.00 59 1016.7
20260904163520 94 157 0.9 4.3 0.00 0.00 0.00 60 1016.6
20260904163426 94 293 0.9 4.3 0.00 0.00 0.00 60 1016.6
20260904163336 94 275 0.9 4.3 0.00 0.00 0.00 60 1016.7
20260904163307 94 196 1.7 5.2 0.00 0.00 0.00 60 1016.7
20260904163020 95 213 2.6 5.2 0.00 0.00 0.00 60 1016.7
20260904162928 95 230 2.6 5.2 0.00 0.00 0.00 60 1016.7
20260904162839 95 254 2.6 5.2 0.00 0.00 0.00 60 1016.6
20260904162744 95 171 3.5 5.2 0.00 0.00 0.00 59 1016.6
20260904162630 95 190 2.6 5.2 0.00 0.00 0.00 60 1016.7
20260904162556 95 209 3.5 5.2 0.00 0.00 0.00 60 1016.6
20260904162422 95 198 2.6 5.2 0.00 0.00 0.00 60 1016.6
20260904162327 95 176 1.7 5.2 0.00 0.00 0.00 60 1016.7
20260904162234 95 260 1.7 5.2 0.00 0.00 0.00 61 1016.6
20260904162126 95 254 1.7 5.2 0.00 0.00 0.00 60 1016.7
20260904162033 95 275 1.7 5.2 0.00 0.00 0.00 60 1016.6
20260904161920 95 212 2.6 5.2 0.00 0.00 0.00 60 1016.7
20260904161848 95 194 2.6 5.2 0.00 0.00 0.00 60 1016.7
20260904161818 95 226 2.6 6.1 0.00 0.00 0.00 60 1016.7
20260904161554 95 265 3.5 6.1 0.00 0.00 0.00 61 1016.7
20260904161441 95 292 1.7 6.1 0.00 0.00 0.00 63 1016.8
20260904161327 95 231 0.9 6.1 0.00 0.00 0.00 62 1016.7
20260904161233 94 191 1.7 6.1 0.00 0.00 0.00 60 1016.7
20260904161119 95 149 2.6 6.1 0.00 0.00 0.00 60 1016.7
20260904161026 95 199 3.5 6.1 0.00 0.00 0.00 60 1016.7
20260904160917 95 187 2.6 6.1 0.00 0.00 0.00 61 1016.8
20260904160823 95 238 1.7 4.3 0.00 0.00 0.00 61 1016.8
20260904160731 95 178 1.7 3.5 0.00 0.00 0.00 60 1016.7
20260904160618 95 153 1.7 4.3 0.00 0.00 0.00 61 1016.8
20260904160545 94 155 1.7 4.3 0.00 0.00 0.00 60 1016.7
20260904160452 94 142 0.9 4.3 0.00 0.00 0.00 60 1016.8
20260904160358 94 200 0.9 4.3 0.00 0.00 0.00 60 1016.7
20260904160252 95 90 0.9 4.3 0.00 0.00 0.00 59 1016.7
20260904160025 94 338 0.9 4.3 0.00 0.00 0.00 60 1016.8
20260904155933 94 233 1.7 4.3 0.00 0.00 0.00 59 1016.8
20260904155820 95 233 2.6 4.3 0.00 0.00 0.00 59 1016.8
20260904155731 95 238 1.7 3.5 0.00 0.00 0.00 62 1016.7
20260904155617 94 165 0.9 4.3 0.00 0.00 0.00 61 1016.7
20260904155543 94 234 0.9 4.3 0.00 0.00 0.00 61 1016.7
20260904155429 94 111 0.9 5.2 0.00 0.00 0.00 62 1016.7
20260904155335 94 5 0.9 5.2 0.00 0.00 0.00 61 1016.8
20260904155223 94 5 0.9 5.2 0.00 0.00 0.00 60 1016.8
20260904155149 94 5 0.0 5.2 0.00 0.00 0.00 60 1016.8
20260904155019 94 5 0.9 5.2 0.00 0.00 0.00 62 1016.8
20260904154927 94 346 1.7 5.2 0.00 0.00 0.00 61 1016.8
20260904154834 94 258 2.6 5.2 0.00 0.00 0.00 60 1016.8
20260904154804 94 214 2.6 5.2 0.00 0.00 0.00 60 1016.8
20260904154522 94 198 1.7 5.2 0.00 0.00 0.00 62 1016.8
20260904154430 94 158 2.6 5.2 0.00 0.00 0.00 63 1016.9
20260904154337 94 205 2.6 5.2 0.00 0.00 0.00 64 1016.9
20260904154222 94 189 0.9 2.6 0.00 0.00 0.00 63 1016.8
20260904154131 94 321 0.0 2.6 0.00 0.00 0.00 63 1016.8
20260904154022 93 94 0.0 2.6 0.00 0.00 0.00 62 1016.8
20260904153927 93 46 0.0 4.3 0.00 0.00 0.00 61 1016.9
20260904153834 93 46 0.9 4.3 0.00 0.00 0.00 62 1016.9
20260904153721 93 46 1.7 4.3 0.00 0.00 0.00 63 1016.8
20260904153629 93 46 1.7 5.2 0.00 0.00 0.00 62 1016.9
20260904153535 93 44 0.9 5.2 0.00 0.00 0.00 63 1016.9
20260904153426 93 49 1.7 5.2 0.00 0.00 0.00 63 1016.9
20260904153332 93 51 2.6 5.2 0.00 0.00 0.00 63 1016.9
20260904153303 93 49 2.6 5.2 0.00 0.00 0.00 62 1016.9
20260904153057 93 129 2.6 5.2 0.00 0.00 0.00 64 1016.8
20260904152923 93 122 2.6 5.2 0.00 0.00 0.00 62 1016.9
20260904152833 93 180 2.6 5.2 0.00 0.00 0.00 62 1016.8
20260904152739 93 273 1.7 3.5 0.00 0.00 0.00 63 1016.8
20260904152625 93 199 0.9 4.3 0.00 0.00 0.00 64 1016.8
20260904152550 93 200 0.9 4.3 0.00 0.00 0.00 64 1016.8
20260904152436 93 46 0.9 4.3 0.00 0.00 0.00 63 1016.8
20260904152323 93 68 1.7 4.3 0.00 0.00 0.00 65 1016.8
20260904152229 93 117 1.7 4.3 0.00 0.00 0.00 63 1016.8
20260904152120 93 121 1.7 4.3 0.00 0.00 0.00 64 1016.8
20260904152026 93 124 1.7 4.3 0.00 0.00 0.00 64 1016.8
20260904151935 93 172 1.7 3.5 0.00 0.00 0.00 65 1016.8
20260904151822 93 126 0.9 2.6 0.00 0.00 0.00 65 1016.8
20260904151757 93 121 0.9 2.6 0.00 0.00 0.00 65 1016.8
20260904151531 92 220 0.9 2.6 0.00 0.00 0.00 63 1016.8
20260904151420 92 302 0.9 2.6 0.00 0.00 0.00 63 1016.8
20260904151323 92 348 0.9 2.6 0.00 0.00 0.00 64 1016.8
20260904151230 92 101 1.7 2.6 0.00 0.00 0.00 63 1016.8
20260904151117 92 188 1.7 2.6 0.00 0.00 0.00 63 1016.8
20260904151028 92 183 0.9 2.6 0.00 0.00 0.00 64 1016.8
20260904150935 92 154 0.9 5.2 0.00 0.00 0.00 65 1016.8
20260904150822 92 209 0.0 5.2 0.00 0.00 0.00 67 1016.8
20260904150728 92 209 0.0 5.2 0.00 0.00 0.00 65 1016.8
20260904150656 92 209 0.9 5.2 0.00 0.00 0.00 65 1016.7
20260904150524 92 224 0.9 5.2 0.00 0.00 0.00 65 1016.7
20260904150456 92 360 0.9 5.2 0.00 0.00 0.00 65 1016.7
20260904150401 92 82 1.7 5.2 0.00 0.00 0.00 65 1016.7
20260904150311 91 117 2.6 5.2 0.00 0.00 0.00 65 1016.8
20260904150024 91 208 1.7 6.1 0.00 0.00 0.00 66 1016.7
20260904145930 91 159 2.6 6.1 0.00 0.00 0.00 66 1016.7
20260904145841 91 206 2.6 6.1 0.00 0.00 0.00 65 1016.7
20260904145747 91 230 2.6 6.1 0.00 0.00 0.00 67 1016.7
20260904145652 91 209 0.9 6.1 0.00 0.00 0.00 67 1016.6
20260904145518 91 267 0.9 6.1 0.00 0.00 0.00 67 1016.6
20260904145426 91 307 0.9 6.1 0.00 0.00 0.00 67 1016.6
20260904145333 91 201 2.6 6.1 0.00 0.00 0.00 67 1016.7
20260904145220 91 216 2.6 6.1 0.00 0.00 0.00 66 1016.6
20260904145131 91 190 1.7 6.1 0.00 0.00 0.00 67 1016.6
20260904145038 91 177 0.9 4.3 0.00 0.00 0.00 66 1016.7
20260904144926 91 315 0.9 4.3 0.00 0.00 0.00 66 1016.6
20260904144831 91 61 1.7 4.3 0.00 0.00 0.00 66 1016.6
20260904144802 91 109 1.7 4.3 0.00 0.00 0.00 66 1016.6
20260904144539 91 207 1.7 4.3 0.00 0.00 0.00 66 1016.6
20260904144444 91 147 2.6 4.3 0.00 0.00 0.00 68 1016.6
20260904144331 91 114 1.7 4.3 0.00 0.00 0.00 69 1016.6
20260904144218 91 142 1.7 4.3 0.00 0.00 0.00 66 1016.5
20260904144125 91 200 0.9 4.3 0.00 0.00 0.00 66 1016.6
20260904144032 91 248 0.9 4.3 0.00 0.00 0.00 68 1016.6
20260904143923 91 66 0.0 4.3 0.00 0.00 0.00 66 1016.5
20260904143829 90 65 0.9 4.3 0.00 0.00 0.00 67 1016.6
20260904143717 90 195 1.7 4.3 0.00 0.00 0.00 66 1016.7
20260904143645 90 183 1.7 4.3 0.00 0.00 0.00 67 1016.6
20260904143552 90 234 0.9 4.3 0.00 0.00 0.00 68 1016.6
20260904143418 90 202 0.0 4.3 0.00 0.00 0.00 68 1016.5
20260904143325 90 219 0.0 4.3 0.00 0.00 0.00 69 1016.5
20260904143259 90 219 0.9 4.3 0.00 0.00 0.00 69 1016.5
20260904143032 90 174 0.9 4.3 0.00 0.00 0.00 69 1016.6
20260904142939 90 270 0.0 4.3 0.00 0.00 0.00 69 1016.6
20260904142824 89 238 0.9 4.3 0.00 0.00 0.00 68 1016.5
20260904142731 89 238 1.7 4.3 0.00 0.00 0.00 69 1016.5
20260904142621 89 188 1.7 4.3 0.00 0.00 0.00 68 1016.5
20260904142548 89 180 1.7 4.3 0.00 0.00 0.00 68 1016.5
20260904142435 89 230 0.9 4.3 0.00 0.00 0.00 68 1016.5
20260904142320 89 114 1.7 4.3 0.00 0.00 0.00 68 1016.5
20260904142228 89 114 1.7 4.3 0.00 0.00 0.00 68 1016.6
20260904142135 89 163 1.7 4.3 0.00 0.00 0.00 68 1016.5
20260904142025 89 191 2.6 4.3 0.00 0.00 0.00 68 1016.5
20260904141930 89 171 1.7 3.5 0.00 0.00 0.00 69 1016.5
20260904141838 89 170 0.9 4.3 0.00 0.00 0.00 70 1016.5
20260904141808 89 200 0.9 4.3 0.00 0.00 0.00 70 1016.5
20260904141525 88 78 0.0 4.3 0.00 0.00 0.00 71 1016.6
20260904141432 88 259 0.0 4.3 0.00 0.00 0.00 69 1016.6
20260904141318 88 259 0.9 4.3 0.00 0.00 0.00 70 1016.6
20260904141226 88 259 0.9 4.3 0.00 0.00 0.00 71 1016.5
20260904141153 88 257 1.7 4.3 0.00 0.00 0.00 71 1016.5
20260904141020 88 194 2.6 6.1 0.00 0.00 0.00 70 1016.6
20260904140932 88 206 2.6 6.1 0.00 0.00 0.00 71 1016.6
20260904140819 88 221 1.7 6.1 0.00 0.00 0.00 72 1016.6
20260904140726 88 157 0.9 6.1 0.00 0.00 0.00 71 1016.5
20260904140632 88 204 0.9 6.1 0.00 0.00 0.00 72 1016.5
20260904140518 88 184 1.7 6.1 0.00 0.00 0.00 71 1016.5
20260904140424 88 145 1.7 6.1 0.00 0.00 0.00 71 1016.5
20260904140335 88 194 3.5 6.1 0.00 0.00 0.00 71 1016.5
20260904140305 88 194 4.3 7.0 0.00 0.00 0.00 71 1016.5
20260904140017 87 182 4.3 6.1 0.00 0.00 0.00 72 1016.5
20260904135923 87 123 3.5 6.1 0.00 0.00 0.00 72 1016.5
20260904135835 87 111 1.7 3.5 0.00 0.00 0.00 73 1016.5
20260904135721 87 120 0.9 3.5 0.00 0.00 0.00 73 1016.5
20260904135627 87 96 0.0 3.5 0.00 0.00 0.00 72 1016.5
20260904135535 87 120 0.9 3.5 0.00 0.00 0.00 73 1016.5
20260904135419 87 120 1.7 3.5 0.00 0.00 0.00 73 1016.5
20260904135327 87 119 1.7 3.5 0.00 0.00 0.00 73 1016.5
20260904135237 87 129 0.9 3.5 0.00 0.00 0.00 73 1016.5
20260904135143 87 96 1.7 3.5 0.00 0.00 0.00 73 1016.5
20260904135027 87 92 2.6 3.5 0.00 0.00 0.00 73 1016.4
20260904134953 87 107 2.6 3.5 0.00 0.00 0.00 74 1016.5
20260904134819 87 146 0.9 3.5 0.00 0.00 0.00 72 1016.5
20260904134753 87 127 0.9 3.5 0.00 0.00 0.00 73 1016.5
20260904134525 87 79 0.9 2.6 0.00 0.00 0.00 73 1016.5
20260904134433 87 79 1.7 2.6 0.00 0.00 0.00 73 1016.5
20260904134319 87 113 2.6 2.6 0.00 0.00 0.00 72 1016.5
20260904134226 87 131 1.7 2.6 0.00 0.00 0.00 72 1016.5
20260904134117 87 90 0.9 2.6 0.00 0.00 0.00 72 1016.5
20260904134024 87 118 0.9 2.6 0.00 0.00 0.00 73 1016.6
20260904133931 87 117 0.0 2.6 0.00 0.00 0.00 73 1016.5
20260904133819 87 98 0.9 2.6 0.00 0.00 0.00 73 1016.5
20260904133727 87 98 0.9 2.6 0.00 0.00 0.00 73 1016.5
20260904133634 87 123 0.9 2.6 0.00 0.00 0.00 72 1016.5
20260904133524 87 107 0.9 2.6 0.00 0.00 0.00 73 1016.4
20260904133431 87 107 0.9 2.6 0.00 0.00 0.00 73 1016.5
20260904133338 87 78 0.9 2.6 0.00 0.00 0.00 73 1016.5
20260904133309 87 88 0.9 2.6 0.00 0.00 0.00 73 1016.5
20260904133025 87 84 0.9 2.6 0.00 0.00 0.00 73 1016.4
20260904132933 87 126 0.0 1.7 0.00 0.00 0.00 73 1016.5
20260904132858 87 53 0.0 2.6 0.00 0.00 0.00 73 1016.6
20260904132743 87 53 0.0 2.6 0.00 0.00 0.00 73 1016.5
20260904132649 87 109 0.0 2.6 0.00 0.00 0.00 73 1016.6
20260904132537 87 110 0.0 2.6 0.00 0.00 0.00 73 1016.5
20260904132443 86 94 0.0 2.6 0.00 0.00 0.00 74 1016.5
20260904132329 86 112 0.9 2.6 0.00 0.00 0.00 73 1016.6
20260904132220 86 154 0.9 2.6 0.00 0.00 0.00 74 1016.5
20260904132127 86 66 0.9 2.6 0.00 0.00 0.00 74 1016.5
20260904132033 86 71 0.9 2.6 0.00 0.00 0.00 75 1016.5
20260904131920 86 80 0.9 2.6 0.00 0.00 0.00 75 1016.5
20260904131849 86 57 0.9 2.6 0.00 0.00 0.00 75 1016.5
20260904131802 86 71 0.9 2.6 0.00 0.00 0.00 75 1016.5
20260904131554 86 74 1.7 2.6 0.00 0.00 0.00 76 1016.5
20260904131420 86 99 0.9 1.7 0.00 0.00 0.00 76 1016.5
20260904131326 86 85 0.0 1.7 0.00 0.00 0.00 77 1016.5
20260904131234 86 76 0.0 1.7 0.00 0.00 0.00 77 1016.4
20260904131125 85 126 0.9 1.7 0.00 0.00 0.00 77 1016.4
20260904131051 85 126 0.9 1.7 0.00 0.00 0.00 77 1016.4
20260904130917 85 119 0.0 1.7 0.00 0.00 0.00 78 1016.5
20260904130825 85 107 0.0 0.9 0.00 0.00 0.00 78 1016.5
20260904130752 85 67 0.0 0.9 0.00 0.00 0.00 78 1016.4
20260904130617 85 360 0.0 0.0 0.00 0.00 0.00 78 1016.5
20260904130523 85 360 0.0 0.0 0.00 0.00 0.00 79 1016.5
20260904130435 84 360 0.0 0.0 0.00 0.00 0.00 79 1016.6
20260904130322 84 360 0.0 0.0 0.00 0.00 0.00 80 1016.4
20260904130253 84 360 0.0 0.9 0.00 0.00 0.00 80 1016.4
20260904130027 84 360 0.0 0.9 0.00 0.00 0.00 80 1016.4
20260904125937 84 360 0.0 1.7 0.00 0.00 0.00 80 1016.5
20260904125844 84 360 0.0 1.7 0.00 0.00 0.00 81 1016.4
20260904125728 83 360 0.0 1.7 0.00 0.00 0.00 81 1016.4
20260904125636 83 360 0.0 1.7 0.00 0.00 0.00 81 1016.4
20260904125523 83 360 0.0 1.7 0.00 0.00 0.00 81 1016.5
20260904125429 83 360 0.0 1.7 0.00 0.00 0.00 81 1016.5
20260904125320 83 360 0.0 1.7 0.00 0.00 0.00 81 1016.5
20260904125227 83 360 0.0 1.7 0.00 0.00 0.00 82 1016.4
20260904125133 83 360 0.9 1.7 0.00 0.00 0.00 83 1016.3
20260904125020 83 360 0.0 1.7 0.00 0.00 0.00 82 1016.4
20260904124926 82 360 0.0 1.7 0.00 0.00 0.00 82 1016.4
20260904124833 82 360 0.0 1.7 0.00 0.00 0.00 82 1016.4
20260904124808 82 360 0.0 1.7 0.00 0.00 0.00 83 1016.4
20260904124521 82 360 0.9 1.7 0.00 0.00 0.00 82 1016.4
20260904124448 82 360 0.9 1.7 0.00 0.00 0.00 83 1016.3
20260904124334 82 360 0.9 1.7 0.00 0.00 0.00 82 1016.3
20260904124224 81 360 0.9 1.7 0.00 0.00 0.00 83 1016.2
20260904124151 81 360 0.9 1.7 0.00 0.00 0.00 83 1016.4
20260904124036 81 360 0.0 2.6 0.00 0.00 0.00 84 1016.3
20260904123923 81 360 0.0 2.6 0.00 0.00 0.00 84 1016.3
20260904123848 81 360 0.0 2.6 0.00 0.00 0.00 84 1016.3
20260904123733 81 360 0.0 2.6 0.00 0.00 0.00 84 1016.3
20260904123620 81 360 0.0 2.6 0.00 0.00 0.00 84 1016.3
20260904123550 81 360 0.9 2.6 0.00 0.00 0.00 84 1016.2
20260904123435 81 360 0.9 2.6 0.00 0.00 0.00 84 1016.3
20260904123323 80 360 0.9 1.7 0.00 0.00 0.00 85 1016.3
20260904123253 80 360 0.9 1.7 0.00 0.00 0.00 85 1016.3
20260904123046 80 140 0.0 0.9 0.00 0.00 0.00 85 1016.2
20260904122953 80 140 0.0 0.0 0.00 0.00 0.00 85 1016.2
20260904122823 80 140 0.0 0.0 0.00 0.00 0.00 86 1016.2
20260904122729 80 140 0.0 0.9 0.00 0.00 0.00 86 1016.2
20260904122635 79 140 0.0 0.9 0.00 0.00 0.00 86 1016.2
20260904122521 79 140 0.0 1.7 0.00 0.00 0.00 86 1016.2
20260904122430 79 140 0.0 1.7 0.00 0.00 0.00 87 1016.2
20260904122340 79 140 0.0 1.7 0.00 0.00 0.00 87 1016.1
20260904122246 79 140 0.0 1.7 0.00 0.00 0.00 87 1016.1
20260904122133 79 140 0.0 1.7 0.00 0.00 0.00 87 1016.1
20260904122020 79 140 0.0 1.7 0.00 0.00 0.00 87 1016.1
20260904121926 79 140 0.9 1.7 0.00 0.00 0.00 87 1016.1
20260904121833 79 140 0.9 1.7 0.00 0.00 0.00 87 1016.2
20260904121809 79 140 0.9 1.7 0.00 0.00 0.00 88 1016.2
20260904121522 78 140 0.0 1.7 0.00 0.00 0.00 88 1016.1
20260904121448 78 140 0.0 1.7 0.00 0.00 0.00 88 1016.1
20260904121336 78 140 0.0 1.7 0.00 0.00 0.00 88 1016.1
20260904121224 78 140 0.9 1.7 0.00 0.00 0.00 88 1016.1
20260904121134 78 140 0.9 1.7 0.00 0.00 0.00 88 1016.1
20260904121021 78 140 0.9 1.7 0.00 0.00 0.00 88 1016.1
20260904120948 78 140 0.9 1.7 0.00 0.00 0.00 88 1016.1
20260904120835 78 140 0.9 1.7 0.00 0.00 0.00 89 1016.1
20260904120722 78 140 0.9 1.7 0.00 0.00 0.00 89 1016.1
20260904120630 78 140 0.9 1.7 0.00 0.00 0.00 89 1016.1
20260904120522 78 140 0.9 1.7 0.00 0.00 0.00 89 1016.1
20260904120448 78 140 0.9 1.7 0.00 0.00 0.00 89 1016.1
20260904120355 77 140 0.9 1.7 0.00 0.00 0.00 89 1016.1
20260904120304 77 140 0.9 1.7 0.00 0.00 0.00 90 1016.1
20260904120036 77 140 1.7 1.7 0.00 0.00 0.00 90 1016.0
20260904115926 77 140 1.7 1.7 0.00 0.00 0.00 90 1015.9
20260904115833 77 140 0.9 1.7 0.00 0.00 0.00 90 1016.0
20260904115719 77 140 0.9 1.7 0.00 0.00 0.00 90 1016.0
20260904115627 77 140 0.9 1.7 0.00 0.00 0.00 90 1016.0
20260904115535 77 140 0.9 1.7 0.00 0.00 0.00 90 1016.0
20260904115420 77 155 0.0 1.7 0.00 0.00 0.00 90 1016.0
20260904115332 77 155 0.0 1.7 0.00 0.00 0.00 91 1016.1
20260904115219 77 155 0.9 1.7 0.00 0.00 0.00 91 1016.0
20260904115126 77 155 0.9 1.7 0.00 0.00 0.00 91 1015.9
20260904115034 77 155 0.0 1.7 0.00 0.00 0.00 91 1016.0
20260904114921 77 109 0.9 1.7 0.00 0.00 0.00 90 1015.9
20260904114802 76 109 0.0 1.7 0.00 0.00 0.00 91 1016.0
20260904114536 76 109 0.0 0.0 0.00 0.00 0.00 91 1016.0
20260904114424 76 109 0.0 0.0 0.00 0.00 0.00 91 1015.9
20260904114330 76 109 0.0 0.9 0.00 0.00 0.00 91 1015.9
20260904114220 76 109 0.0 1.7 0.00 0.00 0.00 91 1016.0
20260904114128 76 109 0.0 1.7 0.00 0.00 0.00 91 1015.9
20260904114037 76 109 0.0 2.6 0.00 0.00 0.00 91 1016.0
20260904113924 76 109 0.0 2.6 0.00 0.00 0.00 91 1015.9
20260904113829 76 109 0.0 2.6 0.00 0.00 0.00 91 1015.9
20260904113721 76 109 0.0 2.6 0.00 0.00 0.00 91 1015.9
20260904113628 76 109 0.0 2.6 0.00 0.00 0.00 92 1015.9
20260904113557 76 109 0.0 2.6 0.00 0.00 0.00 92 1015.9
20260904113424 76 109 0.9 2.6 0.00 0.00 0.00 92 1015.7
20260904113305 76 109 0.9 2.6 0.00 0.00 0.00 92 1015.9
20260904113018 76 69 0.0 1.7 0.00 0.00 0.00 92 1015.9
20260904112924 76 9 0.0 1.7 0.00 0.00 0.00 92 1015.8
20260904112852 76 9 0.0 1.7 0.00 0.00 0.00 92 1015.7
20260904112737 76 9 0.0 1.7 0.00 0.00 0.00 92 1015.8
20260904112623 76 5 0.0 1.7 0.00 0.00 0.00 91 1015.7
20260904112555 76 9 0.0 1.7 0.00 0.00 0.00 91 1015.8
20260904112421 76 9 0.0 1.7 0.00 0.00 0.00 92 1015.8
20260904112329 76 9 0.0 1.7 0.00 0.00 0.00 92 1015.7
20260904112256 76 9 0.0 1.7 0.00 0.00 0.00 92 1015.7
20260904112120 76 9 0.9 1.7 0.00 0.00 0.00 92 1015.7
20260904112049 76 9 0.9 2.6 0.00 0.00 0.00 91 1015.6
20260904111917 76 9 0.9 2.6 0.00 0.00 0.00 91 1015.6
20260904111828 76 5 0.9 2.6 0.00 0.00 0.00 91 1015.7
20260904111759 76 5 0.9 2.6 0.00 0.00 0.00 91 1015.7
20260904111532 76 9 0.9 2.6 0.00 0.00 0.00 91 1015.7
20260904111438 76 9 0.9 2.6 0.00 0.00 0.00 91 1015.8
20260904111325 76 9 0.9 2.6 0.00 0.00 0.00 92 1015.6
20260904111236 76 9 1.7 2.6 0.00 0.00 0.00 91 1015.8
20260904111123 76 9 1.7 2.6 0.00 0.00 0.00 91 1015.7
20260904111050 76 9 1.7 2.6 0.00 0.00 0.00 91 1015.7
20260904110935 76 9 1.7 2.6 0.00 0.00 0.00 91 1015.8
20260904110823 76 9 1.7 2.6 0.00 0.00 0.00 91 1015.8
20260904110729 76 9 1.7 2.6 0.00 0.00 0.00 91 1015.7
20260904110620 76 9 1.7 2.6 0.00 0.00 0.00 91 1015.7
20260904110527 76 9 1.7 2.6 0.00 0.00 0.00 91 1015.7
20260904110435 76 9 1.7 2.6 0.00 0.00 0.00 91 1015.6
20260904110320 76 9 1.7 2.6 0.00 0.00 0.00 91 1015.6
20260904110254 76 9 1.7 2.6 0.00 0.00 0.00 91 1015.6
20260904110026 76 5 1.7 2.6 0.00 0.00 0.00 91 1015.5
20260904105934 76 17 1.7 2.6 0.00 0.00 0.00 91 1015.5
20260904105822 76 355 1.7 2.6 0.00 0.00 0.00 91 1015.5
20260904105728 76 355 1.7 2.6 0.00 0.00 0.00 91 1015.4
20260904105620 76 355 1.7 2.6 0.00 0.00 0.00 91 1015.5
20260904105528 76 355 1.7 2.6 0.00 0.00 0.00 91 1015.4
20260904105435 76 355 1.7 2.6 0.00 0.00 0.00 91 1015.4
20260904105321 76 355 1.7 2.6 0.00 0.00 0.00 91 1015.5
20260904105227 76 355 1.7 2.6 0.00 0.00 0.00 91 1015.4
20260904105135 76 355 2.6 3.5 0.00 0.00 0.00 91 1015.3
20260904105026 76 5 1.7 3.5 0.00 0.00 0.00 91 1015.4
20260904104932 76 355 1.7 3.5 0.00 0.00 0.00 91 1015.3
20260904104811 76 5 1.7 3.5 0.00 0.00 0.00 91 1015.4
20260904104527 76 349 2.6 3.5 0.00 0.00 0.00 91 1015.4
20260904104433 76 350 2.6 3.5 0.00 0.00 0.00 91 1015.4
20260904104320 76 360 2.6 3.5 0.00 0.00 0.00 91 1015.4
20260904104226 76 355 2.6 3.5 0.00 0.00 0.00 91 1015.4
20260904104154 76 350 1.7 3.5 0.00 0.00 0.00 91 1015.4
20260904104019 76 355 1.7 2.6 0.00 0.00 0.00 91 1015.4
20260904103930 76 355 1.7 2.6 0.00 0.00 0.00 91 1015.4
20260904103818 76 355 1.7 2.6 0.00 0.00 0.00 91 1015.3
20260904103744 76 355 1.7 2.6 0.00 0.00 0.00 91 1015.3
20260904103650 76 355 1.7 2.6 0.00 0.00 0.00 91 1015.3
20260904103536 76 355 1.7 2.6 0.00 0.00 0.00 91 1015.3
20260904103423 76 355 1.7 2.6 0.00 0.00 0.00 91 1015.3
20260904103306 76 355 1.7 2.6 0.00 0.00 0.00 91 1015.4
20260904103039 76 355 1.7 2.6 0.00 0.00 0.00 91 1015.3
20260904102926 76 355 1.7 2.6 0.00 0.00 0.00 91 1015.4
20260904102854 76 355 1.7 2.6 0.00 0.00 0.00 91 1015.3
20260904102718 76 355 1.7 2.6 0.00 0.00 0.00 91 1015.3
20260904102630 76 355 1.7 2.6 0.00 0.00 0.00 91 1015.2
20260904102538 76 355 1.7 2.6 0.00 0.00 0.00 91 1015.3
20260904102423 76 355 1.7 2.6 0.00 0.00 0.00 91 1015.3
20260904102329 76 355 1.7 2.6 0.00 0.00 0.00 91 1015.3
20260904102256 76 355 1.7 3.5 0.00 0.00 0.00 91 1015.2
20260904102120 76 355 1.7 3.5 0.00 0.00 0.00 91 1015.2
20260904102027 76 355 1.7 3.5 0.00 0.00 0.00 91 1015.2
20260904101919 76 355 1.7 3.5 0.00 0.00 0.00 91 1015.3
20260904101846 76 355 1.7 3.5 0.00 0.00 0.00 91 1015.3
20260904101816 76 355 1.7 3.5 0.00 0.00 0.00 91 1015.3
20260904101528 76 344 2.6 3.5 0.00 0.00 0.00 91 1015.2
20260904101419 76 351 2.6 3.5 0.00 0.00 0.00 91 1015.1
20260904101325 76 340 2.6 2.6 0.00 0.00 0.00 91 1015.3
20260904101232 76 355 1.7 2.6 0.00 0.00 0.00 91 1015.1
20260904101119 76 338 1.7 2.6 0.00 0.00 0.00 91 1015.2
20260904101026 76 338 1.7 2.6 0.00 0.00 0.00 91 1015.2
20260904100932 76 5 1.7 2.6 0.00 0.00 0.00 91 1015.1
20260904100824 76 5 1.7 2.6 0.00 0.00 0.00 91 1015.2
20260904100732 76 5 1.7 1.7 0.00 0.00 0.00 91 1015.2
20260904100618 76 5 0.9 1.7 0.00 0.00 0.00 91 1015.2
20260904100545 76 5 0.0 2.6 0.00 0.00 0.00 91 1015.1
20260904100451 76 5 0.0 2.6 0.00 0.00 0.00 91 1015.2
20260904100318 76 5 0.0 2.6 0.00 0.00 0.00 91 1015.1
20260904100251 76 5 0.9 2.6 0.00 0.00 0.00 91 1015.1
20260904100023 76 5 0.9 2.6 0.00 0.00 0.00 91 1015.1
20260904095930 76 5 1.7 2.6 0.00 0.00 0.00 91 1015.0
20260904095836 76 5 1.7 2.6 0.00 0.00 0.00 90 1015.0
20260904095742 76 5 1.7 2.6 0.00 0.00 0.00 91 1015.0
20260904095626 76 5 1.7 2.6 0.00 0.00 0.00 91 1015.0
20260904095518 76 5 1.7 2.6 0.00 0.00 0.00 91 1015.1
20260904095424 76 5 1.7 2.6 0.00 0.00 0.00 91 1015.0
20260904095330 76 5 1.7 2.6 0.00 0.00 0.00 91 1015.0
20260904095236 76 5 1.7 2.6 0.00 0.00 0.00 91 1015.0
20260904095123 76 5 1.7 2.6 0.00 0.00 0.00 91 1015.0
20260904095034 76 5 1.7 2.6 0.00 0.00 0.00 91 1015.0
20260904094923 76 5 1.7 2.6 0.00 0.00 0.00 91 1015.0
20260904094850 76 351 2.6 2.6 0.00 0.00 0.00 91 1015.0
20260904094758 76 355 2.6 2.6 0.00 0.00 0.00 90 1015.0
20260904094533 76 355 1.7 2.6 0.00 0.00 0.00 90 1014.9
20260904094425 76 355 1.7 1.7 0.00 0.00 0.00 90 1015.0
20260904094332 76 325 1.7 1.7 0.00 0.00 0.00 90 1015.0
20260904094218 76 325 0.9 1.7 0.00 0.00 0.00 90 1015.0
20260904094124 76 325 0.9 1.7 0.00 0.00 0.00 90 1014.9
20260904094050 76 325 0.9 1.7 0.00 0.00 0.00 90 1015.0
20260904093935 76 325 0.9 1.7 0.00 0.00 0.00 90 1015.0
20260904093826 76 325 0.9 1.7 0.00 0.00 0.00 91 1015.0
20260904093734 76 325 0.9 1.7 0.00 0.00 0.00 91 1014.9
20260904093622 76 325 0.9 1.7 0.00 0.00 0.00 91 1014.9
20260904093529 76 325 0.9 1.7 0.00 0.00 0.00 91 1014.9
20260904093418 77 325 0.9 1.7 0.00 0.00 0.00 91 1014.9
20260904093344 77 325 0.9 1.7 0.00 0.00 0.00 91 1014.9
20260904093319 77 325 0.9 1.7 0.00 0.00 0.00 91 1014.9
20260904093032 77 325 0.9 1.7 0.00 0.00 0.00 91 1014.8
20260904092919 77 325 0.9 1.7 0.00 0.00 0.00 90 1015.0
20260904092847 77 325 0.9 1.7 0.00 0.00 0.00 90 1014.9
20260904092731 77 325 0.9 0.9 0.00 0.00 0.00 90 1014.9
20260904092622 77 325 0.9 0.9 0.00 0.00 0.00 90 1014.9
20260904092550 77 325 0.0 0.9 0.00 0.00 0.00 90 1014.9
20260904092437 77 325 0.0 0.9 0.00 0.00 0.00 91 1014.9
20260904092324 77 325 0.0 0.9 0.00 0.00 0.00 90 1015.0
20260904092251 77 325 0.0 1.7 0.00 0.00 0.00 90 1014.9
20260904092117 77 325 0.0 1.7 0.00 0.00 0.00 90 1014.9
20260904092030 77 325 0.0 1.7 0.00 0.00 0.00 90 1014.9
20260904091917 77 325 0.0 1.7 0.00 0.00 0.00 90 1015.0
20260904091845 77 325 0.0 1.7 0.00 0.00 0.00 90 1015.0
20260904091815 77 325 0.0 1.7 0.00 0.00 0.00 90 1015.0
20260904091529 77 325 0.0 2.6 0.00 0.00 0.00 90 1014.9
20260904091421 77 325 0.9 2.6 0.00 0.00 0.00 90 1014.9
20260904091348 77 325 0.9 2.6 0.00 0.00 0.00 90 1014.8
20260904091235 77 325 0.9 2.6 0.00 0.00 0.00 90 1014.8
20260904091120 77 325 0.9 2.6 0.00 0.00 0.00 90 1014.8
20260904091028 77 10 1.7 2.6 0.00 0.00 0.00 90 1014.8
20260904090936 77 10 1.7 2.6 0.00 0.00 0.00 90 1014.9
20260904090845 77 10 1.7 2.6 0.00 0.00 0.00 90 1014.9
20260904090731 77 10 1.7 2.6 0.00 0.00 0.00 90 1014.8
20260904090618 77 10 1.7 2.6 0.00 0.00 0.00 90 1014.9
20260904090525 77 10 1.7 2.6 0.00 0.00 0.00 89 1014.9
20260904090431 77 10 1.7 2.6 0.00 0.00 0.00 89 1014.8
20260904090318 77 10 1.7 2.6 0.00 0.00 0.00 89 1015.0
20260904090253 77 10 1.7 2.6 0.00 0.00 0.00 89 1015.0
20260904090026 77 10 1.7 2.6 0.00 0.00 0.00 89 1014.9
20260904085933 77 10 1.7 2.6 0.00 0.00 0.00 89 1014.8
20260904085820 77 10 1.7 2.6 0.00 0.00 0.00 89 1014.8
20260904085732 77 10 1.7 2.6 0.00 0.00 0.00 89 1014.8
20260904085618 77 10 1.7 2.6 0.00 0.00 0.00 89 1014.9
20260904085526 77 10 1.7 2.6 0.00 0.00 0.00 89 1014.9
20260904085452 77 10 1.7 2.6 0.00 0.00 0.00 89 1014.8
20260904085317 77 10 1.7 2.6 0.00 0.00 0.00 89 1014.9
20260904085243 78 10 1.7 2.6 0.00 0.00 0.00 89 1014.8
20260904085130 78 5 1.7 2.6 0.00 0.00 0.00 89 1014.9
20260904085042 78 360 2.6 2.6 0.00 0.00 0.00 89 1014.9
20260904084947 78 360 1.7 2.6 0.00 0.00 0.00 89 1014.9
20260904084853 78 355 0.9 2.6 0.00 0.00 0.00 89 1014.9
20260904084801 78 355 0.0 2.6 0.00 0.00 0.00 88 1014.8
20260904084535 78 355 0.0 0.0 0.00 0.00 0.00 88 1014.8
20260904084426 78 342 0.0 0.0 0.00 0.00 0.00 88 1014.8
20260904084333 78 276 0.0 0.0 0.00 0.00 0.00 88 1014.8
20260904084220 78 276 0.0 0.0 0.00 0.00 0.00 88 1014.9
20260904084126 78 276 0.0 0.0 0.00 0.00 0.00 87 1014.8
20260904084033 78 276 0.0 0.0 0.00 0.00 0.00 87 1014.8
20260904083920 78 276 0.0 0.0 0.00 0.00 0.00 87 1014.8
20260904083833 78 276 0.0 0.0 0.00 0.00 0.00 87 1014.8
20260904083719 78 276 0.0 0.0 0.00 0.00 0.00 87 1014.8
20260904083626 78 276 0.0 0.0 0.00 0.00 0.00 87 1014.9
20260904083534 78 276 0.0 0.0 0.00 0.00 0.00 87 1014.8
20260904083422 78 276 0.0 0.0 0.00 0.00 0.00 87 1014.8
20260904083348 78 276 0.0 0.0 0.00 0.00 0.00 87 1014.8
20260904083301 78 276 0.0 0.0 0.00 0.00 0.00 87 1014.8
20260904083033 78 276 0.0 0.0 0.00 0.00 0.00 87 1014.8
20260904082921 78 276 0.0 0.0 0.00 0.00 0.00 86 1014.8
20260904082827 78 276 0.0 0.0 0.00 0.00 0.00 86 1014.8
20260904082754 78 276 0.0 0.0 0.00 0.00 0.00 86 1014.9
20260904082624 78 276 0.0 0.0 0.00 0.00 0.00 86 1014.8
20260904082531 78 276 0.0 0.0 0.00 0.00 0.00 86 1014.8
20260904082418 78 276 0.0 0.0 0.00 0.00 0.00 87 1014.8
20260904082325 78 276 0.0 0.9 0.00 0.00 0.00 87 1014.8
20260904082231 78 276 0.0 0.9 0.00 0.00 0.00 87 1014.8
20260904082123 79 276 0.0 0.9 0.00 0.00 0.00 87 1014.8
20260904082030 79 276 0.0 0.9 0.00 0.00 0.00 87 1014.8
20260904081917 79 276 0.0 0.9 0.00 0.00 0.00 87 1014.8
20260904081844 79 276 0.0 0.9 0.00 0.00 0.00 87 1014.9
20260904081816 79 276 0.0 0.9 0.00 0.00 0.00 87 1014.9
20260904081532 79 276 0.9 0.9 0.00 0.00 0.00 87 1014.9
20260904081439 79 276 0.9 0.9 0.00 0.00 0.00 87 1014.8
20260904081325 79 276 0.9 0.9 0.00 0.00 0.00 87 1014.8
20260904081232 79 276 0.9 0.9 0.00 0.00 0.00 87 1014.8
20260904081120 79 276 0.0 1.7 0.00 0.00 0.00 87 1014.8
20260904081028 79 276 0.0 1.7 0.00 0.00 0.00 87 1014.8
20260904080939 79 276 0.0 1.7 0.00 0.00 0.00 87 1014.7
20260904080824 79 276 0.0 1.7 0.00 0.00 0.00 87 1014.8
20260904080730 79 276 0.9 1.7 0.00 0.00 0.00 87 1014.7
20260904080656 79 276 0.0 1.7 0.00 0.00 0.00 86 1014.8
20260904080522 79 276 0.0 1.7 0.00 0.00 0.00 86 1014.7
20260904080429 79 276 0.9 1.7 0.00 0.00 0.00 86 1014.7
20260904080321 79 276 0.9 1.7 0.00 0.00 0.00 86 1014.7
20260904080251 79 276 1.7 1.7 0.00 0.00 0.00 86 1014.7
20260904080045 79 282 1.7 1.7 0.00 0.00 0.00 86 1014.6
20260904075930 79 279 1.7 1.7 0.00 0.00 0.00 86 1014.7
20260904075835 79 96 0.9 1.7 0.00 0.00 0.00 86 1014.6
20260904075727 79 96 1.7 1.7 0.00 0.00 0.00 86 1014.7
20260904075635 79 96 1.7 1.7 0.00 0.00 0.00 86 1014.7
20260904075521 79 96 0.9 1.7 0.00 0.00 0.00 86 1014.7
20260904075427 80 96 0.9 1.7 0.00 0.00 0.00 86 1014.7
20260904075334 80 96 0.9 1.7 0.00 0.00 0.00 86 1014.7
20260904075241 80 96 1.7 1.7 0.00 0.00 0.00 85 1014.6
20260904075132 80 96 1.7 1.7 0.00 0.00 0.00 85 1014.6
20260904075020 80 96 0.9 1.7 0.00 0.00 0.00 85 1014.6
20260904074928 80 96 0.9 1.7 0.00 0.00 0.00 85 1014.7
20260904074855 80 96 0.0 1.7 0.00 0.00 0.00 85 1014.7
20260904074826 80 96 0.0 0.0 0.00 0.00 0.00 85 1014.6
20260904074523 80 96 0.0 0.0 0.00 0.00 0.00 85 1014.6
20260904074450 80 96 0.0 0.0 0.00 0.00 0.00 85 1014.6
20260904074335 80 96 0.0 0.0 0.00 0.00 0.00 85 1014.6
20260904074221 80 96 0.0 0.0 0.00 0.00 0.00 85 1014.6
20260904074128 80 96 0.0 0.0 0.00 0.00 0.00 85 1014.6
20260904074018 80 96 0.0 0.0 0.00 0.00 0.00 85 1014.6
20260904073926 80 96 0.0 0.9 0.00 0.00 0.00 85 1014.6
20260904073832 80 96 0.0 0.9 0.00 0.00 0.00 84 1014.7
20260904073720 80 96 0.0 0.9 0.00 0.00 0.00 84 1014.7
20260904073626 80 96 0.0 0.9 0.00 0.00 0.00 84 1014.7
20260904073534 80 96 0.0 0.9 0.00 0.00 0.00 84 1014.7
20260904073446 80 96 0.0 0.9 0.00 0.00 0.00 83 1014.7
20260904073331 80 96 0.0 0.9 0.00 0.00 0.00 83 1014.8
20260904073301 80 96 0.0 1.7 0.00 0.00 0.00 84 1014.8
20260904073034 80 96 0.0 1.7 0.00 0.00 0.00 84 1014.7
20260904072920 80 96 0.0 1.7 0.00 0.00 0.00 84 1014.7
20260904072831 80 96 0.0 2.6 0.00 0.00 0.00 84 1014.7
20260904072717 80 96 0.0 2.6 0.00 0.00 0.00 84 1014.7
20260904072645 80 96 0.0 2.6 0.00 0.00 0.00 84 1014.7
20260904072530 80 96 0.0 2.6 0.00 0.00 0.00 84 1014.7
20260904072456 80 96 0.9 2.6 0.00 0.00 0.00 84 1014.7
20260904072321 80 92 0.9 2.6 0.00 0.00 0.00 84 1014.7
20260904072233 80 93 0.9 2.6 0.00 0.00 0.00 84 1014.7
20260904072139 80 63 0.9 2.6 0.00 0.00 0.00 84 1014.7
20260904072025 80 109 0.9 2.6 0.00 0.00 0.00 84 1014.7
20260904071932 80 115 0.9 1.7 0.00 0.00 0.00 83 1014.7
20260904071818 80 155 0.0 1.7 0.00 0.00 0.00 83 1014.7
20260904071753 80 155 0.0 1.7 0.00 0.00 0.00 83 1014.7
20260904071547 80 155 0.0 1.7 0.00 0.00 0.00 83 1014.6
20260904071432 80 155 0.0 1.7 0.00 0.00 0.00 83 1014.6
20260904071319 80 155 0.0 1.7 0.00 0.00 0.00 84 1014.7
20260904071226 80 155 0.9 1.7 0.00 0.00 0.00 84 1014.7
20260904071152 80 155 0.9 1.7 0.00 0.00 0.00 84 1014.6
20260904071017 80 155 0.9 2.6 0.00 0.00 0.00 84 1014.7
20260904070929 80 155 0.0 2.6 0.00 0.00 0.00 84 1014.7
20260904070836 80 155 0.0 2.6 0.00 0.00 0.00 84 1014.7
20260904070723 80 155 0.0 2.6 0.00 0.00 0.00 84 1014.7
20260904070630 80 155 0.9 2.6 0.00 0.00 0.00 84 1014.6
20260904070517 80 155 0.9 2.6 0.00 0.00 0.00 84 1014.7
20260904070424 80 155 1.7 2.6 0.00 0.00 0.00 85 1014.7
20260904070333 80 155 1.7 2.6 0.00 0.00 0.00 85 1014.6
20260904070304 80 153 1.7 2.6 0.00 0.00 0.00 85 1014.6
20260904070039 79 142 1.7 2.6 0.00 0.00 0.00 85 1014.7
20260904065924 79 144 1.7 2.6 0.00 0.00 0.00 85 1014.6
20260904065831 79 141 1.7 2.6 0.00 0.00 0.00 85 1014.7
20260904065723 79 123 1.7 2.6 0.00 0.00 0.00 85 1014.7
20260904065631 79 142 1.7 2.6 0.00 0.00 0.00 85 1014.7
20260904065518 79 147 1.7 2.6 0.00 0.00 0.00 85 1014.8
20260904065426 79 144 1.7 2.6 0.00 0.00 0.00 85 1014.8
20260904065354 79 142 1.7 1.7 0.00 0.00 0.00 85 1014.7
20260904065223 79 129 1.7 1.7 0.00 0.00 0.00 85 1014.8
20260904065129 79 134 1.7 1.7 0.00 0.00 0.00 85 1014.8
20260904065037 79 123 0.9 1.7 0.00 0.00 0.00 85 1014.9
20260904064923 79 84 0.0 1.7 0.00 0.00 0.00 85 1014.8
20260904064851 79 84 0.9 1.7 0.00 0.00 0.00 85 1014.8
20260904064827 79 45 0.9 1.7 0.00 0.00 0.00 85 1014.8
20260904064518 79 45 1.7 1.7 0.00 0.00 0.00 85 1014.8
20260904064425 79 360 1.7 1.7 0.00 0.00 0.00 85 1014.8
20260904064331 79 360 0.9 1.7 0.00 0.00 0.00 85 1014.8
20260904064217 79 360 0.9 1.7 0.00 0.00 0.00 85 1014.8
20260904064125 79 360 0.9 1.7 0.00 0.00 0.00 85 1014.8
20260904064036 79 360 0.9 1.7 0.00 0.00 0.00 85 1014.8
20260904063922 79 360 0.9 1.7 0.00 0.00 0.00 85 1014.8
20260904063829 79 360 0.9 1.7 0.00 0.00 0.00 85 1014.8
20260904063736 79 360 0.9 1.7 0.00 0.00 0.00 85 1014.8
20260904063622 79 360 0.0 0.9 0.00 0.00 0.00 84 1014.7
20260904063529 79 360 0.0 0.9 0.00 0.00 0.00 84 1014.7
20260904063439 79 360 0.0 0.0 0.00 0.00 0.00 84 1014.8
20260904063324 79 360 0.0 0.0 0.00 0.00 0.00 83 1014.8
20260904063254 79 360 0.0 0.0 0.00 0.00 0.00 83 1014.8
20260904063028 79 360 0.0 0.0 0.00 0.00 0.00 83 1014.8
20260904062955 79 360 0.0 0.0 0.00 0.00 0.00 83 1014.8
20260904062825 79 360 0.0 0.0 0.00 0.00 0.00 83 1014.8
20260904062732 79 360 0.0 0.0 0.00 0.00 0.00 83 1014.9
20260904062620 79 360 0.0 0.0 0.00 0.00 0.00 84 1014.8
20260904062528 79 360 0.0 0.0 0.00 0.00 0.00 84 1014.8
20260904062432 79 360 0.0 0.0 0.00 0.00 0.00 84 1014.9
20260904062323 79 360 0.0 0.0 0.00 0.00 0.00 84 1014.9
20260904062229 79 360 0.0 0.0 0.00 0.00 0.00 84 1014.8
20260904062118 79 360 0.0 0.0 0.00 0.00 0.00 83 1014.9
20260904062025 79 360 0.0 0.0 0.00 0.00 0.00 83 1014.9
20260904061951 80 360 0.0 0.0 0.00 0.00 0.00 83 1014.9
20260904061856 80 360 0.0 0.0 0.00 0.00 0.00 83 1014.9
20260904061810 80 360 0.0 0.0 0.00 0.00 0.00 83 1014.9
20260904061523 80 360 0.0 0.0 0.00 0.00 0.00 83 1014.9
20260904061431 80 360 0.0 0.9 0.00 0.00 0.00 84 1015.0
20260904061317 80 360 0.0 0.9 0.00 0.00 0.00 84 1014.9
20260904061223 80 360 0.0 1.7 0.00 0.00 0.00 83 1014.9
20260904061135 80 360 0.0 1.7 0.00 0.00 0.00 83 1015.0
20260904061021 80 360 0.0 1.7 0.00 0.00 0.00 83 1014.9
20260904060949 80 360 0.0 1.7 0.00 0.00 0.00 83 1015.0
20260904060835 80 360 0.0 1.7 0.00 0.00 0.00 83 1014.9
20260904060723 80 360 0.0 1.7 0.00 0.00 0.00 83 1014.9
20260904060650 80 360 0.0 1.7 0.00 0.00 0.00 83 1014.9
20260904060555 80 360 0.9 1.7 0.00 0.00 0.00 83 1014.9
20260904060444 80 360 0.9 1.7 0.00 0.00 0.00 82 1015.0
20260904060301 80 360 1.7 1.7 0.00 0.00 0.00 83 1014.9
20260904060034 80 360 0.9 1.7 0.00 0.00 0.00 83 1014.9
20260904055921 80 360 0.9 1.7 0.00 0.00 0.00 83 1015.0
20260904055832 80 360 0.0 1.7 0.00 0.00 0.00 83 1014.9
20260904055719 80 360 0.0 1.7 0.00 0.00 0.00 84 1014.9
20260904055628 80 360 0.0 1.7 0.00 0.00 0.00 84 1014.9
20260904055534 80 360 0.0 1.7 0.00 0.00 0.00 84 1015.0
20260904055421 80 360 0.0 1.7 0.00 0.00 0.00 84 1015.0
20260904055331 80 360 0.0 1.7 0.00 0.00 0.00 84 1015.0
20260904055217 80 360 0.0 1.7 0.00 0.00 0.00 84 1015.0
20260904055124 80 360 0.9 1.7 0.00 0.00 0.00 84 1015.0
20260904055032 80 360 0.9 1.7 0.00 0.00 0.00 84 1015.0
20260904054939 80 360 1.7 1.7 0.00 0.00 0.00 84 1014.9
20260904054825 80 360 0.9 1.7 0.00 0.00 0.00 84 1015.0
20260904054759 80 360 0.9 1.7 0.00 0.00 0.00 84 1015.0
20260904054534 80 360 0.0 1.7 0.00 0.00 0.00 84 1014.9
20260904054420 80 360 0.0 0.0 0.00 0.00 0.00 84 1014.9
20260904054327 80 360 0.0 0.9 0.00 0.00 0.00 84 1015.0
20260904054217 80 360 0.0 0.9 0.00 0.00 0.00 84 1014.9
20260904054124 80 360 0.0 0.9 0.00 0.00 0.00 84 1015.0
20260904054052 80 360 0.0 1.7 0.00 0.00 0.00 84 1015.0
20260904053919 80 360 0.0 1.7 0.00 0.00 0.00 84 1014.9
20260904053827 80 360 0.0 1.7 0.00 0.00 0.00 84 1015.0
20260904053754 80 360 0.0 1.7 0.00 0.00 0.00 84 1015.0
20260904053618 80 360 0.0 1.7 0.00 0.00 0.00 84 1015.0
20260904053546 80 360 0.0 1.7 0.00 0.00 0.00 83 1015.0
20260904053433 80 360 0.9 1.7 0.00 0.00 0.00 83 1015.0
20260904053340 80 360 0.9 1.7 0.00 0.00 0.00 83 1015.1
20260904053310 80 360 0.9 1.7 0.00 0.00 0.00 83 1015.1
20260904053022 80 360 0.9 1.7 0.00 0.00 0.00 83 1015.1
20260904052929 80 360 0.0 1.7 0.00 0.00 0.00 83 1015.1
20260904052820 80 360 0.0 1.7 0.00 0.00 0.00 83 1015.0
20260904052746 80 360 0.0 0.9 0.00 0.00 0.00 83 1015.0
20260904052632 80 360 0.0 0.0 0.00 0.00 0.00 82 1015.1
20260904052519 80 360 0.0 0.9 0.00 0.00 0.00 82 1015.1
20260904052427 80 360 0.0 0.9 0.00 0.00 0.00 82 1015.1
20260904052318 80 360 0.0 0.9 0.00 0.00 0.00 82 1015.1
20260904052225 81 360 0.0 0.9 0.00 0.00 0.00 82 1015.1
20260904052152 81 360 0.0 1.7 0.00 0.00 0.00 82 1015.1
20260904052036 81 360 0.0 1.7 0.00 0.00 0.00 82 1015.1
20260904051943 81 360 0.0 1.7 0.00 0.00 0.00 81 1015.1
20260904051850 81 360 0.0 1.7 0.00 0.00 0.00 81 1015.1
20260904051804 81 360 0.0 1.7 0.00 0.00 0.00 81 1015.1
20260904051537 81 360 0.0 1.7 0.00 0.00 0.00 81 1015.0
20260904051442 81 360 0.9 1.7 0.00 0.00 0.00 82 1015.0
20260904051328 81 360 0.9 1.7 0.00 0.00 0.00 82 1015.0
20260904051236 81 360 0.9 1.7 0.00 0.00 0.00 82 1015.0
20260904051143 81 360 0.9 1.7 0.00 0.00 0.00 81 1015.0
20260904051028 81 360 0.9 1.7 0.00 0.00 0.00 81 1015.1
20260904050919 81 360 0.9 1.7 0.00 0.00 0.00 82 1015.0
20260904050826 81 360 0.9 1.7 0.00 0.00 0.00 81 1015.1
20260904050733 81 360 0.9 1.7 0.00 0.00 0.00 80 1015.1
20260904050620 81 360 0.9 1.7 0.00 0.00 0.00 80 1015.2
20260904050547 81 360 0.9 1.7 0.00 0.00 0.00 81 1015.1
20260904050430 81 360 0.0 1.7 0.00 0.00 0.00 81 1015.1
20260904050342 81 360 0.9 1.7 0.00 0.00 0.00 81 1015.2
20260904050251 81 360 0.9 1.7 0.00 0.00 0.00 82 1015.1
20260904050024 81 360 0.9 1.7 0.00 0.00 0.00 82 1015.2
20260904045933 81 360 0.9 1.7 0.00 0.00 0.00 82 1015.2
20260904045819 81 360 0.0 0.9 0.00 0.00 0.00 82 1015.2
20260904045728 81 360 0.0 0.9 0.00 0.00 0.00 81 1015.2
20260904045636 81 360 0.0 0.0 0.00 0.00 0.00 81 1015.2
20260904045522 81 360 0.0 0.0 0.00 0.00 0.00 81 1015.2
20260904045430 81 360 0.0 0.0 0.00 0.00 0.00 81 1015.2
20260904045357 81 360 0.0 0.9 0.00 0.00 0.00 80 1015.2
20260904045225 81 360 0.0 0.9 0.00 0.00 0.00 79 1015.1
20260904045136 81 360 0.0 0.9 0.00 0.00 0.00 78 1015.1
20260904045041 81 360 0.0 0.9 0.00 0.00 0.00 79 1015.1
20260904044926 81 360 0.0 0.9 0.00 0.00 0.00 79 1015.2
20260904044804 81 360 0.0 0.9 0.00 0.00 0.00 79 1015.2
20260904044520 81 360 0.0 1.7 0.00 0.00 0.00 78 1015.2
20260904044427 81 360 0.9 1.7 0.00 0.00 0.00 78 1015.2
20260904044333 81 360 0.9 1.7 0.00 0.00 0.00 78 1015.2
20260904044218 81 360 0.9 1.7 0.00 0.00 0.00 78 1015.1
20260904044124 81 360 0.9 1.7 0.00 0.00 0.00 78 1015.1
20260904044036 81 360 0.9 1.7 0.00 0.00 0.00 78 1015.2
20260904043922 81 360 0.0 1.7 0.00 0.00 0.00 78 1015.2
20260904043828 81 360 0.0 1.7 0.00 0.00 0.00 78 1015.2
20260904043756 82 360 0.9 1.7 0.00 0.00 0.00 78 1015.2
20260904043622 82 360 0.9 1.7 0.00 0.00 0.00 78 1015.1
20260904043526 82 360 0.9 1.7 0.00 0.00 0.00 78 1015.1
20260904043435 82 360 0.0 1.7 0.00 0.00 0.00 78 1015.1
20260904043323 82 360 0.0 1.7 0.00 0.00 0.00 78 1015.1
20260904043253 82 360 0.0 1.7 0.00 0.00 0.00 78 1015.1
20260904043046 82 360 0.0 1.7 0.00 0.00 0.00 77 1015.2
20260904042952 82 360 0.0 1.7 0.00 0.00 0.00 77 1015.2
20260904042824 82 360 0.0 1.7 0.00 0.00 0.00 77 1015.2
20260904042729 82 360 0.0 1.7 0.00 0.00 0.00 77 1015.1
20260904042635 82 360 0.9 1.7 0.00 0.00 0.00 77 1015.2
20260904042523 82 360 0.9 1.7 0.00 0.00 0.00 77 1015.3
20260904042452 82 360 0.9 1.7 0.00 0.00 0.00 77 1015.2
20260904042317 82 360 0.9 1.7 0.00 0.00 0.00 77 1015.3
20260904042228 82 360 0.9 1.7 0.00 0.00 0.00 77 1015.2
20260904042156 82 360 0.9 1.7 0.00 0.00 0.00 76 1015.2
20260904042020 82 13 0.9 1.7 0.00 0.00 0.00 76 1015.3
20260904041927 82 13 0.9 1.7 0.00 0.00 0.00 76 1015.3
20260904041835 82 13 0.9 1.7 0.00 0.00 0.00 76 1015.3
20260904041804 82 13 0.9 1.7 0.00 0.00 0.00 76 1015.3
20260904041522 83 13 0.0 0.9 0.00 0.00 0.00 76 1015.2
20260904041429 83 13 0.0 0.9 0.00 0.00 0.00 76 1015.2
20260904041336 83 13 0.0 0.9 0.00 0.00 0.00 76 1015.2
20260904041243 83 13 0.0 0.9 0.00 0.00 0.00 76 1015.2
20260904041129 83 13 0.0 0.9 0.00 0.00 0.00 76 1015.2
20260904041019 83 13 0.9 0.9 0.00 0.00 0.00 76 1015.2
20260904040925 83 13 0.0 0.9 0.00 0.00 0.00 76 1015.2
20260904040832 83 13 0.0 0.9 0.00 0.00 0.00 77 1015.3
20260904040719 83 13 0.0 0.9 0.00 0.00 0.00 76 1015.3
20260904040625 83 13 0.0 0.9 0.00 0.00 0.00 76 1015.3
20260904040531 83 13 0.0 0.9 0.00 0.00 0.00 76 1015.3
20260904040421 83 13 0.0 0.9 0.00 0.00 0.00 76 1015.2
20260904040348 83 13 0.0 0.9 0.00 0.00 0.00 76 1015.2
20260904040318 83 13 0.0 0.9 0.00 0.00 0.00 75 1015.2
20260904040032 83 13 0.0 0.9 0.00 0.00 0.00 76 1015.3
20260904035958 83 13 0.0 0.9 0.00 0.00 0.00 76 1015.3
20260904035823 84 13 0.0 0.9 0.00 0.00 0.00 76 1015.3
20260904035754 84 13 0.0 1.7 0.00 0.00 0.00 76 1015.3
20260904035639 84 13 0.9 1.7 0.00 0.00 0.00 76 1015.3
20260904035543 84 13 0.0 1.7 0.00 0.00 0.00 76 1015.3
20260904035428 84 13 0.0 1.7 0.00 0.00 0.00 76 1015.3
20260904035335 84 16 0.0 1.7 0.00 0.00 0.00 76 1015.3
20260904035222 84 27 0.0 1.7 0.00 0.00 0.00 76 1015.3
20260904035128 84 125 0.0 1.7 0.00 0.00 0.00 76 1015.3
20260904035018 84 125 0.0 1.7 0.00 0.00 0.00 75 1015.3
20260904034925 84 125 0.0 1.7 0.00 0.00 0.00 75 1015.4
20260904034833 84 125 0.0 0.9 0.00 0.00 0.00 74 1015.4
20260904034802 84 125 0.0 0.9 0.00 0.00 0.00 74 1015.4
20260904034519 84 125 0.0 0.9 0.00 0.00 0.00 74 1015.3
20260904034426 85 125 0.0 0.9 0.00 0.00 0.00 74 1015.4
20260904034333 85 125 0.0 0.9 0.00 0.00 0.00 74 1015.4
20260904034221 85 125 0.0 0.9 0.00 0.00 0.00 73 1015.4
20260904034129 85 125 0.0 0.9 0.00 0.00 0.00 73 1015.5
20260904034019 85 125 0.0 0.9 0.00 0.00 0.00 72 1015.5
20260904033925 85 125 0.0 0.9 0.00 0.00 0.00 72 1015.5
20260904033833 85 125 0.0 0.9 0.00 0.00 0.00 72 1015.5
20260904033721 85 125 0.0 0.9 0.00 0.00 0.00 71 1015.4
20260904033648 85 125 0.0 0.9 0.00 0.00 0.00 71 1015.5
20260904033534 85 125 0.0 0.0 0.00 0.00 0.00 72 1015.5
20260904033442 85 125 0.0 0.0 0.00 0.00 0.00 72 1015.5
20260904033353 85 125 0.0 0.0 0.00 0.00 0.00 73 1015.4
20260904033303 85 125 0.0 0.0 0.00 0.00 0.00 73 1015.4
20260904033035 85 125 0.0 0.0 0.00 0.00 0.00 72 1015.5
20260904032922 85 125 0.0 0.0 0.00 0.00 0.00 72 1015.5
20260904032848 85 125 0.0 0.0 0.00 0.00 0.00 72 1015.5
20260904032717 85 125 0.0 1.7 0.00 0.00 0.00 72 1015.5
20260904032644 85 125 0.0 1.7 0.00 0.00 0.00 72 1015.6
20260904032531 85 125 0.0 1.7 0.00 0.00 0.00 72 1015.6
20260904032438 85 125 0.0 1.7 0.00 0.00 0.00 71 1015.5
20260904032325 85 125 0.0 1.7 0.00 0.00 0.00 70 1015.5
20260904032232 86 125 0.0 1.7 0.00 0.00 0.00 70 1015.5
20260904032123 86 126 0.0 1.7 0.00 0.00 0.00 70 1015.5
20260904032029 86 125 0.0 1.7 0.00 0.00 0.00 70 1015.5
20260904031917 86 125 0.9 1.7 0.00 0.00 0.00 70 1015.5
20260904031824 86 125 0.9 1.7 0.00 0.00 0.00 70 1015.6
20260904031753 85 125 0.9 1.7 0.00 0.00 0.00 70 1015.6
20260904031531 86 125 0.9 1.7 0.00 0.00 0.00 70 1015.6
20260904031417 86 125 0.9 1.7 0.00 0.00 0.00 70 1015.4
20260904031345 86 125 0.9 1.7 0.00 0.00 0.00 70 1015.5
20260904031230 86 125 0.9 1.7 0.00 0.00 0.00 71 1015.6
20260904031117 86 125 0.9 1.7 0.00 0.00 0.00 70 1015.5
20260904031044 86 125 0.9 1.7 0.00 0.00 0.00 71 1015.5
20260904030932 86 125 0.9 1.7 0.00 0.00 0.00 70 1015.6
20260904030821 86 125 0.9 1.7 0.00 0.00 0.00 70 1015.6
20260904030749 86 125 0.9 1.7 0.00 0.00 0.00 70 1015.5
20260904030655 86 125 0.9 2.6 0.00 0.00 0.00 70 1015.6
20260904030521 86 125 0.9 2.6 0.00 0.00 0.00 71 1015.6
20260904030428 86 125 0.9 2.6 0.00 0.00 0.00 71 1015.6
20260904030334 86 125 0.9 2.6 0.00 0.00 0.00 70 1015.6
20260904030308 86 125 0.9 2.6 0.00 0.00 0.00 71 1015.6
20260904030020 86 103 1.7 2.6 0.00 0.00 0.00 70 1015.7
20260904025927 86 120 1.7 2.6 0.00 0.00 0.00 70 1015.6
20260904025834 86 120 1.7 2.6 0.00 0.00 0.00 71 1015.5
20260904025724 86 114 1.7 2.6 0.00 0.00 0.00 71 1015.6
20260904025631 86 114 1.7 2.6 0.00 0.00 0.00 70 1015.6
20260904025536 86 114 0.9 2.6 0.00 0.00 0.00 71 1015.5
20260904025422 86 111 0.9 2.6 0.00 0.00 0.00 70 1015.6
20260904025329 86 107 0.9 2.6 0.00 0.00 0.00 71 1015.5